[{"header": {"dx": 0.06612293990616946, "dy": 0.0552356325346848, "nx": 98, "ny": 59, "la1": 35.046912555036876, "la2": 31.78801023549047, "lo1": -121.43107172385933, "lo2": -114.95102361305473, "refTime": "2026042500", "parameterCategory": 1, "parameterNumber": 2}, "data": [8.93, 8.93, 8.93, 8.93, 8.55, 8.55, 8.82, 8.43, 8.43, 8.27, 8.15, 8.0, 9.75, 9.49, 9.24, 8.9, 8.94, 8.49, 8.94, 8.49, 8.49, 8.85, 8.33, 8.9, 9.39, 8.94, 8.9, 8.9, 7.63, 3.47, 0.0, -0.96, 0.0, 0.0, 0.88, 1.99, 1.99, 2.76, 2.76, 4.54, 5.21, 5.95, 6.9, 7.6, 8.48, 8.14, 8.77, 8.9, 8.94, 9.35, 9.24, 9.6, 10.04, 10.66, 10.63, 11.28, 11.28, 11.83, 11.75, 12.04, 11.87, 12.09, 12.09, 11.66, 11.66, 12.09, 12.09, 12.09, 12.09, 12.09, 12.09, 12.09, 12.27, 12.41, 11.96, 11.59, 11.18, 10.73, 10.73, 10.25, 9.8, 9.24, 8.8, 8.33, 7.42, 6.36, 6.94, 6.94, 7.1, 7.54, 7.55, 7.6, 8.05, 8.05, 7.6, 7.6, 7.15, 6.94, 8.55, 8.93, 8.93, 8.93, 8.93, 8.55, 8.82, 8.43, 8.27, 7.9, 7.61, 9.03, 8.95, 8.82, 9.97, 9.76, 8.45, 9.39, 8.94, 7.6, 8.94, 8.38, 8.38, 8.85, 8.0, 8.05, 8.45, 8.33, 7.63, 4.43, 0.0, 0.0, 0.0, 0.0, 0.96, 1.84, 1.84, 1.99, 2.76, 3.63, 4.74, 6.08, 5.72, 6.16, 7.55, 8.05, 8.45, 8.77, 9.24, 9.42, 9.67, 10.01, 10.28, 10.79, 10.79, 11.64, 11.6, 11.5, 11.79, 11.87, 12.09, 12.09, 12.27, 11.84, 11.84, 12.27, 12.27, 11.37, 11.5, 11.2, 12.04, 12.3, 12.53, 12.27, 11.96, 11.59, 11.18, 10.73, 10.73, 10.25, 9.8, 9.24, 8.8, 8.33, 7.42, 6.36, 6.94, 6.94, 7.1, 7.54, 7.55, 7.6, 8.05, 8.05, 7.6, 7.6, 7.15, 6.94, 8.55, 8.55, 8.55, 8.93, 8.93, 8.55, 8.82, 8.43, 8.27, 7.9, 7.61, 7.48, 8.95, 8.95, 8.4, 9.06, 9.24, 9.24, 8.9, 9.39, 7.6, 8.49, 8.49, 8.38, 8.38, 7.6, 7.6, 7.85, 7.2, 4.29, 0.89, 0.0, 0.0, 0.0, 0.89, 1.4, 0.96, 0.96, 1.98, 3.47, 4.11, 4.57, 5.36, 6.2, 7.12, 8.3, 8.95, 9.42, 9.65, 9.66, 10.66, 10.66, 10.66, 11.26, 10.65, 11.5, 11.09, 11.37, 11.37, 12.09, 12.09, 12.27, 12.27, 12.27, 11.84, 11.8, 10.55, 10.04, 10.29, 10.9, 11.75, 12.3, 12.27, 11.96, 11.59, 11.15, 10.73, 10.73, 9.83, 9.8, 9.8, 9.24, 8.33, 7.63, 6.79, 6.28, 6.28, 6.57, 6.7, 6.94, 6.94, 6.94, 7.55, 7.55, 7.55, 7.15, 7.1, 6.7, 8.55, 8.55, 8.55, 8.55, 8.55, 8.55, 8.55, 8.43, 8.27, 7.9, 7.35, 7.61, 8.95, 8.55, 9.24, 9.24, 9.24, 9.42, 9.06, 8.8, 8.45, 8.94, 8.49, 7.6, 8.05, 8.49, 7.15, 6.94, 6.18, 4.16, 1.63, 0.83, 0.95, 1.4, 1.32, 0.0, 0.0, 0.0, 0.81, 1.98, 3.13, 3.93, 4.29, 6.01, 7.41, 8.42, 9.05, 9.43, 9.67, 9.66, 10.15, 10.66, 11.02, 10.63, 10.96, 10.96, 11.37, 11.37, 11.61, 12.09, 12.74, 12.74, 12.41, 12.41, 11.36, 9.65, 8.93, 8.85, 10.19, 11.12, 12.04, 12.09, 11.96, 11.15, 11.18, 11.18, 10.73, 10.25, 9.8, 9.8, 8.82, 8.8, 7.85, 6.94, 6.16, 6.57, 6.57, 6.57, 6.57, 6.57, 6.57, 6.94, 6.94, 7.1, 6.71, 6.65, 6.57, 6.21, 8.55, 8.55, 8.55, 8.55, 8.55, 8.55, 8.55, 8.43, 8.27, 7.9, 7.35, 7.61, 8.43, 9.13, 9.24, 9.24, 9.08, 9.24, 9.24, 9.06, 9.46, 8.82, 8.38, 8.38, 7.55, 8.05, 7.01, 5.6, 4.43, 3.72, 2.51, 1.73, 1.84, 1.98, 1.63, 0.0, 0.0, 0.0, -1.26, -0.0, 0.89, 2.51, 4.5, 6.18, 7.35, 8.03, 8.68, 9.04, 9.67, 10.04, 10.28, 10.63, 10.23, 10.55, 10.55, 10.85, 10.95, 11.61, 12.09, 12.27, 12.86, 12.42, 12.41, 10.89, 8.67, 7.64, 7.9, 9.06, 10.3, 11.26, 12.04, 12.53, 11.42, 11.59, 10.73, 9.81, 10.25, 10.14, 9.7, 9.28, 8.67, 8.56, 7.63, 6.7, 6.16, 6.16, 6.57, 6.57, 6.16, 6.45, 6.45, 6.45, 6.2, 6.26, 6.45, 6.21, 6.6, 6.21, 8.82, 8.55, 8.55, 8.55, 8.55, 8.55, 8.18, 8.27, 8.27, 7.9, 7.35, 6.98, 8.43, 8.8, 9.13, 9.24, 8.95, 9.55, 8.95, 8.95, 8.8, 7.76, 8.06, 7.45, 7.45, 7.01, 5.64, 4.02, 3.13, 4.0, 3.63, 3.55, 4.42, 4.58, 3.22, 0.0, -1.99, -2.98, -1.98, -0.95, 0.89, 2.69, 4.12, 5.76, 6.83, 7.9, 8.93, 9.62, 10.01, 9.67, 9.65, 9.65, 9.65, 10.55, 10.55, 10.95, 11.18, 11.8, 12.27, 12.86, 12.42, 12.49, 11.06, 8.43, 5.86, 6.65, 8.18, 8.76, 9.96, 11.26, 12.45, 12.37, 12.53, 11.52, 10.73, 9.8, 9.35, 9.8, 9.8, 9.06, 8.72, 8.3, 7.76, 6.21, 5.58, 5.6, 6.02, 6.17, 5.73, 5.81, 5.81, 5.81, 5.51, 5.58, 5.82, 6.8, 6.8, 6.7, 8.43, 8.43, 8.0, 8.0, 8.0, 8.0, 8.0, 8.27, 8.27, 7.9, 7.35, 6.79, 8.43, 8.43, 9.6, 8.95, 9.36, 9.77, 9.36, 9.2, 9.2, 9.36, 8.3, 7.53, 7.89, 6.51, 5.36, 3.48, 3.47, 4.29, 6.26, 5.6, 6.21, 6.57, 6.02, 2.97, -1.2, -3.58, -1.8, -0.88, -0.0, 2.54, 3.8, 4.66, 6.98, 8.22, 9.89, 10.24, 9.62, 9.66, 9.3, 9.05, 9.65, 10.15, 10.85, 11.18, 11.36, 11.96, 12.41, 12.49, 12.49, 11.14, 8.21, 5.0, 5.67, 7.13, 8.95, 9.17, 10.66, 11.83, 12.56, 13.01, 12.77, 12.42, 11.18, 9.83, 9.39, 9.39, 9.39, 9.35, 8.56, 7.76, 6.6, 4.98, 4.4, 3.95, 4.92, 5.26, 5.29, 5.73, 5.59, 5.43, 5.49, 5.82, 6.8, 7.12, 7.12, 6.94, 8.43, 8.27, 8.27, 8.27, 8.0, 8.0, 8.27, 8.27, 7.9, 7.72, 7.35, 7.15, 8.18, 8.82, 9.48, 8.63, 9.2, 10.0, 9.74, 9.6, 9.49, 9.6, 10.18, 10.18, 9.06, 8.94, 7.15, 6.0, 4.29, 5.72, 6.51, 5.81, 5.51, 6.51, 6.28, 6.4, 5.09, 2.4, -0.0, -0.0, -0.0, 2.82, 3.6, 4.96, 6.3, 8.53, 8.85, 9.48, 9.56, 10.23, 8.38, 9.43, 10.0, 10.43, 10.68, 11.36, 11.51, 11.59, 11.59, 12.04, 11.18, 7.76, 4.07, 3.87, 5.55, 8.05, 8.95, 9.96, 11.26, 12.04, 13.01, 13.18, 13.39, 12.96, 11.62, 10.28, 9.83, 9.83, 9.83, 9.39, 5.81, 4.85, 2.4, 1.79, 2.0, 2.6, 3.6, 4.98, 5.51, 5.94, 5.75, 5.09, 6.21, 6.21, 7.12, 7.37, 6.94, 7.1, 8.43, 8.27, 8.27, 8.27, 8.27, 8.27, 8.27, 8.0, 7.64, 7.44, 7.44, 6.87, 8.49, 8.12, 8.12, 8.47, 9.16, 9.43, 9.05, 9.2, 9.6, 9.6, 9.77, 10.32, 10.18, 10.47, 8.94, 7.45, 5.72, 7.06, 6.58, 4.11, 1.52, 4.29, 5.37, 7.2, 6.9, 2.8, 1.32, 1.4, 2.69, 4.0, 4.96, 6.64, 7.9, 6.53, 8.53, 8.54, 9.17, 9.96, 9.88, 8.68, 9.43, 9.6, 9.9, 10.18, 10.41, 10.16, 10.7, 10.73, 8.33, 4.34, 3.11, 4.76, 6.4, 8.05, 9.8, 10.63, 11.2, 11.87, 12.74, 12.94, 13.86, 12.94, 12.05, 11.14, 10.25, 10.25, 9.8, 8.94, 6.26, 1.34, -2.24, -1.26, -0.0, 2.4, 3.47, 4.82, 5.29, 5.75, 5.59, 5.59, 5.59, 6.45, 7.1, 7.1, 7.1, 7.1, 8.27, 8.27, 8.27, 8.27, 8.27, 8.27, 8.27, 8.0, 8.0, 7.44, 7.8, 7.51, 7.51, 7.8, 9.16, 8.02, 8.35, 7.9, 8.82, 7.59, 7.27, 7.27, 8.15, 8.73, 8.37, 9.45, 8.85, 6.71, 6.0, 7.06, 7.06, 4.74, 1.4, 2.66, 5.69, 7.6, 6.9, 3.72, 3.7, 4.88, 4.96, 5.89, 6.73, 7.44, 7.44, 5.76, 6.04, 7.27, 8.22, 8.93, 9.0, 8.22, 8.31, 7.59, 7.68, 8.42, 8.43, 8.8, 9.49, 8.45, 4.95, 2.45, 3.28, 5.51, 7.23, 8.31, 9.4, 9.53, 9.78, 11.37, 12.41, 12.96, 13.39, 12.79, 12.14, 10.6, 10.18, 9.75, 9.58, 9.26, 6.98, 1.9, -2.54, -1.58, 0.0, 2.0, 3.2, 4.15, 4.85, 4.85, 4.92, 4.47, 5.36, 5.81, 6.71, 6.65, 6.64, 6.45, 8.27, 8.27, 8.27, 8.27, 8.27, 8.27, 8.27, 8.0, 8.0, 7.8, 7.51, 7.85, 8.15, 8.65, 10.41, 9.67, 9.4, 6.87, 7.15, 6.79, 8.03, 7.76, 7.51, 7.2, 7.44, 8.06, 7.94, 6.58, 5.36, 7.06, 8.06, 5.84, 3.97, 4.19, 5.58, 8.06, 8.4, 6.3, 5.76, 6.83, 7.35, 7.41, 7.81, 8.54, 6.32, 4.12, 4.34, 5.36, 6.64, 6.53, 6.57, 6.08, 5.72, 5.06, 4.87, 5.86, 6.45, 7.59, 8.3, 5.82, 2.41, 2.44, 4.1, 5.67, 7.11, 8.06, 8.18, 7.79, 8.22, 10.0, 11.51, 12.52, 13.33, 12.72, 11.6, 10.15, 9.52, 9.05, 9.36, 8.82, 7.28, 4.41, 1.79, -2.23, -0.87, 0.0, 1.8, 2.68, 3.22, 3.6, 3.6, 3.9, 4.02, 4.92, 5.81, 6.2, 5.94, 5.6, 7.9, 7.9, 8.27, 8.27, 8.27, 8.27, 8.27, 8.0, 8.0, 8.0, 7.73, 8.08, 8.15, 8.73, 9.76, 10.68, 10.71, 10.0, 9.51, 9.27, 9.43, 9.68, 9.32, 11.57, 10.28, 10.73, 10.66, 6.6, 8.17, 8.06, 8.6, 8.17, 7.2, 6.82, 7.63, 8.77, 8.55, 8.42, 7.68, 8.42, 8.06, 8.43, 7.82, 7.44, 4.14, 1.75, 2.58, 3.7, 3.7, 3.87, 3.39, 3.32, 2.39, 2.33, 3.14, 4.1, 6.65, 8.12, 7.42, 3.55, 0.79, 3.16, 4.85, 5.51, 5.51, 5.83, 6.24, 6.28, 6.56, 9.0, 10.53, 12.18, 12.96, 12.72, 10.66, 8.53, 7.48, 7.97, 8.32, 7.67, 7.1, 6.02, 4.98, -1.4, -0.87, 0.0, 0.0, 0.0, 0.87, 1.98, 1.74, 1.9, 2.0, 3.58, 4.47, 5.26, 4.98, 5.51, 7.9, 7.9, 7.9, 8.27, 8.27, 8.27, 8.27, 8.0, 8.0, 8.0, 8.08, 8.08, 8.38, 9.08, 9.86, 11.22, 12.33, 12.78, 12.64, 12.75, 12.84, 13.4, 13.86, 13.85, 13.81, 13.75, 13.67, 12.98, 11.28, 9.23, 10.14, 9.97, 9.24, 9.06, 9.24, 9.06, 8.55, 8.63, 8.43, 8.43, 8.4, 8.4, 7.42, 4.29, 1.25, -0.0, 1.26, 1.26, 1.26, 1.33, 1.6, 0.78, -0.0, 0.73, 2.52, 3.82, 6.08, 9.48, 8.4, 2.69, 0.81, 3.2, 4.76, 4.87, 3.95, 4.07, 4.37, 4.66, 5.67, 8.18, 10.58, 10.66, 8.06, 4.98, 3.77, 3.49, 4.07, 5.06, 5.3, 5.75, 5.75, 6.11, 6.7, 7.2, 3.13, 0.0, 0.0, -0.79, -0.79, 0.0, 0.0, 0.0, 0.0, 2.68, 3.58, 4.34, 4.38, 4.82, 7.9, 7.9, 7.9, 7.9, 8.27, 8.27, 8.27, 8.27, 8.0, 8.0, 8.37, 8.29, 8.65, 8.94, 9.86, 10.41, 11.75, 13.24, 13.73, 14.31, 14.57, 14.65, 14.74, 14.75, 15.19, 15.15, 15.1, 14.57, 13.54, 11.86, 10.22, 10.7, 10.66, 8.9, 9.24, 8.63, 8.63, 8.72, 8.3, 8.3, 8.72, 8.14, 6.9, 2.66, -0.0, -0.0, -0.0, 1.32, 1.32, 1.32, 1.4, -0.0, -0.0, -0.0, 1.58, 3.33, 5.31, 9.86, 11.6, 4.4, 0.78, 3.65, 4.74, 4.74, 4.1, 3.23, 2.93, 2.99, 5.6, 8.12, 10.24, 7.06, -1.08, -5.73, -4.29, -1.03, 0.0, 1.99, 4.92, 5.82, 6.73, 7.76, 7.85, 7.6, 6.07, 4.98, 3.13, 0.0, -1.8, -1.8, -1.98, -2.21, -1.0, 0.0, 2.4, 3.58, 4.02, 4.47, 7.72, 7.9, 7.9, 7.9, 7.9, 8.27, 8.27, 8.27, 8.0, 8.37, 8.55, 8.65, 8.65, 9.21, 9.5, 10.41, 10.96, 12.28, 13.74, 14.42, 14.78, 15.02, 15.1, 15.19, 15.2, 15.2, 14.71, 14.65, 14.11, 13.21, 11.95, 10.27, 11.62, 10.28, 9.76, 9.32, 9.54, 8.3, 9.21, 8.14, 8.77, 8.85, 5.72, 1.32, -0.0, -0.0, -0.0, 1.25, 1.25, 1.4, 1.4, 1.4, 1.4, 2.66, 3.2, 4.29, 6.0, 8.36, 10.68, 8.24, 3.29, 3.92, 4.8, 4.8, 4.8, 3.77, 3.77, 5.1, 6.3, 8.73, 9.05, 5.6, -4.34, -7.1, -5.81, -3.58, -0.0, 4.43, 6.64, 8.31, 9.04, 9.03, 8.48, 8.19, 7.45, 6.7, 5.94, 4.02, 0.0, -2.68, -3.93, -3.22, -1.74, 0.0, 1.2, 2.8, 3.13, 3.13, 7.72, 7.9, 7.9, 7.9, 7.9, 8.27, 8.27, 8.27, 8.0, 8.55, 8.55, 8.93, 8.65, 9.21, 9.76, 10.3, 10.96, 11.75, 12.62, 13.74, 14.16, 14.78, 15.01, 15.1, 15.19, 14.75, 14.74, 14.7, 14.65, 14.19, 13.3, 12.02, 10.73, 11.62, 9.83, 8.46, 9.06, 8.56, 9.54, 9.29, 7.55, 6.94, 5.36, 1.4, -0.0, -0.0, -0.0, 1.25, 2.82, 2.82, 2.66, 2.66, 3.91, 3.91, 5.37, 5.72, 6.64, 8.38, 8.93, 8.22, 5.9, 6.3, 6.64, 6.32, 6.63, 5.31, 5.37, 6.32, 6.64, 7.81, 8.06, 4.47, -4.34, -5.73, -2.2, 1.84, 4.92, 8.3, 9.8, 10.63, 10.66, 9.6, 9.06, 8.45, 8.05, 7.6, 7.1, 5.81, 4.02, 0.0, -3.93, -1.8, 0.0, 0.0, 0.0, 0.0, 1.26, 1.26, 7.72, 7.72, 7.9, 7.9, 7.9, 8.27, 8.27, 8.27, 8.27, 8.55, 8.55, 8.93, 9.1, 9.21, 9.76, 10.3, 10.83, 11.36, 12.11, 12.83, 13.51, 14.16, 14.34, 14.57, 14.7, 14.74, 15.2, 15.2, 15.2, 14.75, 13.85, 13.41, 11.62, 12.52, 8.94, 8.94, 8.9, 9.29, 8.41, 8.41, 7.5, 5.2, 4.29, 2.8, 2.82, 1.25, 2.54, 2.54, 4.14, 5.03, 5.37, 5.03, 5.31, 5.31, 5.31, 6.63, 7.6, 7.44, 7.56, 7.59, 7.59, 7.56, 8.15, 8.22, 8.0, 6.8, 6.9, 6.52, 6.9, 8.06, 8.94, 5.59, 2.68, 1.27, 4.42, 6.57, 8.95, 11.06, 12.16, 11.9, 11.64, 10.15, 9.06, 7.92, 8.05, 8.05, 7.15, 4.92, 1.9, -2.53, -3.48, -2.41, -2.4, 1.79, -0.0, 1.34, 1.34, 1.34, 7.35, 7.72, 7.72, 7.9, 7.9, 7.9, 8.27, 8.27, 8.27, 8.55, 8.55, 8.55, 9.1, 9.48, 9.63, 10.16, 10.83, 11.08, 11.6, 12.33, 13.02, 13.51, 13.88, 13.67, 14.19, 14.7, 14.71, 14.71, 14.7, 14.7, 13.81, 13.4, 12.5, 11.11, 9.77, 10.25, 8.94, 9.39, 8.49, 8.05, 7.06, 6.08, 5.06, 4.56, 4.14, 3.8, 5.31, 5.03, 5.31, 6.63, 6.63, 6.63, 5.31, 5.31, 5.31, 6.01, 6.32, 7.21, 6.95, 7.81, 8.37, 9.2, 9.21, 8.63, 9.03, 7.85, 7.55, 7.5, 7.6, 9.39, 11.62, 12.04, 13.49, 14.17, 13.43, 12.89, 12.26, 13.51, 14.07, 13.43, 12.7, 11.37, 9.97, 8.36, 8.45, 8.05, 7.6, 4.98, 2.21, 0.0, -2.8, -2.8, -2.21, -0.98, -0.0, 1.13, 2.21, 2.21, 7.35, 7.35, 7.72, 7.72, 7.9, 7.9, 7.9, 8.27, 8.27, 8.43, 8.55, 8.55, 9.1, 9.1, 9.48, 11.26, 10.02, 10.55, 10.91, 12.04, 13.02, 13.32, 12.83, 14.15, 13.49, 15.02, 11.4, 13.49, 13.49, 11.4, 11.84, 11.4, 11.04, 10.6, 10.04, 9.57, 9.23, 8.77, 9.8, 9.83, 8.77, 8.17, 8.63, 7.81, 7.21, 6.64, 6.32, 6.63, 6.63, 7.44, 7.44, 6.01, 5.31, 4.96, 4.96, 6.01, 6.64, 6.95, 8.15, 9.1, 9.6, 9.63, 9.97, 8.77, 8.77, 8.45, 8.05, 8.05, 8.45, 11.11, 14.11, 16.76, 20.94, 22.29, 19.8, 16.76, 14.64, 14.55, 15.01, 14.55, 12.42, 11.06, 10.14, 8.82, 9.24, 8.77, 8.45, 7.56, 2.98, 0.0, 1.34, -1.4, -1.83, -0.88, -0.0, 2.2, 2.95, 2.95, 7.35, 7.35, 7.72, 7.72, 7.72, 7.9, 7.9, 8.27, 8.27, 8.43, 8.82, 8.55, 9.1, 9.1, 9.63, 9.63, 9.88, 9.88, 11.6, 12.15, 13.35, 12.11, 11.75, 12.79, 13.11, 12.98, 12.8, 10.34, 10.34, 10.01, 9.57, 9.23, 9.23, 9.23, 8.64, 8.48, 8.91, 8.96, 9.23, 9.37, 9.82, 9.68, 9.54, 8.72, 7.81, 8.54, 8.0, 7.6, 8.0, 8.0, 7.44, 6.01, 4.96, 4.96, 4.5, 5.89, 7.59, 7.31, 8.42, 10.21, 9.97, 9.76, 9.76, 9.39, 8.49, 8.05, 8.0, 8.06, 8.43, 10.23, 13.19, 17.38, 21.86, 23.64, 21.67, 18.33, 16.01, 14.87, 14.55, 14.28, 12.96, 12.07, 10.7, 9.8, 9.8, 9.26, 9.26, 9.28, 6.26, 4.85, 3.58, 0.88, -0.0, -0.0, 0.88, 2.2, 3.48, 3.48, 7.35, 7.35, 7.35, 7.72, 7.72, 7.9, 7.9, 8.27, 8.27, 8.43, 8.82, 8.82, 9.1, 9.1, 9.63, 10.02, 10.4, 10.4, 10.16, 12.23, 12.7, 10.91, 10.55, 10.3, 11.6, 11.92, 12.46, 11.71, 10.94, 10.14, 9.77, 8.87, 8.86, 8.42, 7.97, 7.87, 7.74, 8.17, 8.64, 9.23, 9.82, 9.83, 9.32, 8.79, 7.74, 9.11, 8.6, 8.6, 8.6, 8.22, 7.6, 6.01, 4.71, 4.96, 5.21, 5.89, 7.27, 8.3, 9.86, 9.63, 9.54, 9.76, 9.39, 9.39, 8.05, 7.55, 6.44, 6.18, 7.48, 8.93, 11.28, 14.49, 19.67, 21.98, 20.12, 17.44, 15.05, 14.88, 14.07, 13.64, 13.01, 12.04, 10.73, 9.83, 9.8, 9.35, 9.35, 8.82, 9.28, 8.49, 6.94, 4.42, 2.57, 2.18, 3.11, 3.07, 3.22, 3.22, 7.35, 7.35, 7.35, 7.35, 7.72, 7.72, 7.9, 7.9, 8.27, 8.27, 8.43, 8.82, 8.96, 9.1, 9.63, 9.63, 10.16, 10.16, 11.08, 12.11, 12.11, 11.39, 10.91, 10.4, 10.91, 11.82, 12.3, 12.64, 12.3, 11.57, 11.16, 10.71, 9.83, 9.39, 8.94, 8.92, 8.47, 8.42, 8.33, 8.42, 8.87, 8.94, 8.94, 8.47, 7.97, 7.4, 9.11, 8.6, 8.6, 8.17, 7.6, 5.31, 4.96, 4.96, 4.96, 6.3, 7.27, 8.22, 9.3, 9.2, 8.14, 8.9, 8.49, 8.05, 7.37, 6.18, 4.34, 4.07, 5.76, 6.97, 7.95, 11.3, 15.67, 17.87, 9.6, 9.56, 11.44, 12.37, 13.03, 12.78, 12.79, 11.23, 10.7, 9.83, 9.39, 8.9, 8.77, 8.63, 8.48, 9.26, 7.67, 5.78, 5.18, 5.38, 5.3, 5.46, 4.98, 4.98, 7.35, 7.35, 7.35, 7.35, 7.72, 7.72, 7.9, 7.9, 8.27, 8.27, 8.43, 8.82, 8.96, 9.35, 9.35, 9.88, 10.02, 10.55, 11.08, 11.82, 12.6, 12.35, 12.04, 11.56, 11.39, 11.81, 11.87, 12.04, 12.18, 12.39, 12.02, 11.61, 11.16, 11.18, 10.73, 10.28, 10.28, 9.83, 9.39, 9.39, 9.39, 9.39, 9.39, 8.92, 8.42, 7.87, 10.2, 8.85, 8.85, 7.6, 6.63, 6.32, 6.32, 6.32, 6.32, 6.01, 6.53, 7.78, 9.42, 8.06, 7.76, 7.63, 6.94, 6.16, 5.37, 4.34, 4.07, 4.2, 5.06, 5.76, 6.64, 7.81, 15.31, 10.96, 5.81, 3.84, 5.3, 7.52, 9.43, 10.75, 10.82, 11.2, 10.45, 9.8, 9.39, 8.77, 8.56, 8.4, 8.43, 8.42, 6.98, 6.51, 6.51, 6.64, 7.06, 6.7, 6.07, 6.07, 7.35, 7.35, 7.35, 7.35, 7.35, 7.72, 7.9, 7.9, 7.9, 8.27, 8.43, 8.82, 8.82, 9.35, 9.35, 9.88, 9.88, 10.4, 10.91, 11.41, 12.11, 12.78, 12.94, 12.51, 12.64, 12.64, 12.61, 12.18, 12.3, 12.3, 11.95, 12.02, 11.61, 11.61, 11.62, 11.18, 11.18, 11.18, 10.73, 10.73, 10.73, 10.27, 10.27, 9.77, 9.32, 8.77, 10.66, 9.54, 9.03, 8.54, 8.0, 7.21, 6.87, 6.98, 6.01, 6.32, 5.59, 6.53, 8.22, 8.82, 7.41, 6.82, 6.18, 5.24, 4.5, 4.2, 4.07, 5.69, 5.64, 6.18, 6.18, 12.91, 16.47, 16.76, 14.21, 10.62, 9.11, 8.49, 8.54, 7.94, 9.2, 9.82, 10.27, 9.58, 9.39, 8.63, 8.4, 8.05, 7.76, 8.38, 7.59, 7.27, 7.64, 7.33, 7.32, 7.32, 7.32, 7.32, 7.15, 7.15, 7.35, 7.35, 7.35, 7.35, 7.9, 7.9, 7.9, 8.27, 8.43, 8.43, 8.82, 9.35, 9.35, 9.88, 9.88, 10.4, 10.8, 10.91, 11.62, 12.11, 12.3, 12.78, 12.94, 13.08, 13.19, 12.75, 12.84, 12.4, 12.39, 12.02, 12.02, 12.06, 11.61, 11.62, 11.62, 11.62, 11.18, 11.18, 11.18, 10.71, 10.71, 10.22, 9.77, 9.77, 9.77, 9.68, 9.11, 8.96, 8.3, 9.63, 8.22, 7.07, 6.63, 6.01, 6.32, 6.11, 6.64, 7.59, 8.82, 7.76, 6.73, 6.32, 4.96, 4.4, 4.25, 5.76, 6.7, 7.42, 8.9, 11.18, 16.5, 17.89, 18.73, 18.2, 16.65, 15.13, 12.96, 9.33, 8.93, 9.56, 9.7, 9.83, 9.39, 8.56, 7.82, 7.44, 7.41, 7.31, 8.31, 7.94, 7.96, 8.06, 7.69, 7.33, 7.31, 7.31, 6.79, 6.79, 7.35, 7.35, 7.35, 7.35, 7.35, 7.9, 7.9, 8.27, 8.43, 8.43, 8.82, 8.96, 9.35, 9.48, 9.88, 10.0, 10.4, 10.91, 11.62, 11.62, 11.7, 12.3, 12.3, 12.94, 13.08, 13.21, 12.75, 12.84, 12.4, 12.46, 12.02, 12.06, 12.06, 11.61, 11.62, 11.62, 11.62, 11.18, 11.18, 11.18, 10.71, 10.71, 10.27, 9.77, 9.77, 9.77, 9.24, 9.23, 8.77, 7.87, 9.54, 8.0, 7.07, 7.07, 7.07, 7.6, 6.9, 7.44, 9.09, 10.24, 8.06, 6.73, 5.36, 4.4, 4.92, 5.76, 7.35, 8.4, 8.77, 11.18, 12.94, 16.22, 17.64, 17.5, 17.33, 16.87, 13.86, 10.89, 9.42, 8.93, 9.34, 8.36, 7.45, 6.8, 6.55, 6.39, 6.64, 7.31, 8.31, 8.59, 8.94, 8.93, 7.96, 8.38, 7.94, 7.94, 7.07, 7.07, 7.23, 7.35, 7.35, 7.35, 7.35, 7.72, 7.9, 7.9, 8.43, 8.43, 8.82, 8.96, 9.35, 9.35, 9.88, 9.88, 10.4, 10.62, 11.12, 11.21, 11.81, 11.81, 11.87, 12.46, 12.51, 12.64, 12.75, 12.75, 12.84, 12.39, 12.39, 12.02, 12.02, 12.06, 11.61, 11.61, 11.62, 11.62, 11.18, 11.18, 10.73, 10.71, 10.27, 10.27, 10.27, 9.82, 9.82, 9.32, 8.87, 8.42, 7.97, 7.07, 7.63, 7.12, 8.06, 8.06, 6.6, 6.55, 8.93, 9.42, 10.16, 7.06, 5.98, 4.2, 5.29, 7.35, 8.43, 8.95, 9.7, 10.28, 11.62, 13.32, 14.64, 15.52, 16.76, 14.69, 11.52, 8.4, 7.15, 6.18, 5.16, 4.85, 4.8, 4.81, 5.77, 6.73, 7.35, 7.68, 7.94, 9.57, 10.01, 9.66, 9.57, 9.57, 9.57, 9.57, 7.07, 7.07, 7.07, 7.23, 7.61, 7.61, 7.61, 7.61, 8.15, 7.9, 8.43, 8.43, 8.43, 8.82, 8.96, 9.35, 9.48, 9.88, 10.21, 10.62, 10.71, 11.12, 11.39, 11.81, 11.81, 11.99, 12.04, 11.71, 11.74, 11.86, 11.86, 11.86, 11.95, 11.95, 12.02, 11.57, 11.57, 11.61, 11.61, 11.18, 11.18, 10.73, 10.73, 10.73, 10.73, 10.28, 10.28, 10.28, 9.83, 9.39, 8.94, 8.49, 8.05, 7.6, 6.68, 7.55, 7.94, 7.63, 6.18, 6.82, 8.17, 9.66, 9.36, 7.76, 6.04, 5.69, 7.68, 8.43, 8.82, 9.7, 10.7, 11.18, 11.59, 11.59, 12.52, 14.75, 16.52, 14.73, 9.97, 5.15, 1.99, 0.0, -0.0, 2.68, 4.84, 5.43, 6.7, 8.03, 9.04, 9.4, 9.66, 10.66, 10.91, 10.81, 10.81, 10.79, 10.73, 10.73, 7.07, 7.07, 7.23, 7.23, 7.61, 7.61, 7.61, 7.61, 8.15, 8.15, 8.54, 8.68, 8.68, 8.82, 8.96, 9.35, 9.71, 9.71, 10.11, 10.21, 10.62, 10.71, 11.33, 11.39, 11.56, 11.56, 11.56, 11.71, 11.71, 11.84, 11.84, 11.84, 11.94, 11.49, 11.49, 11.57, 11.57, 11.12, 11.16, 11.16, 10.73, 10.73, 10.28, 11.62, 11.18, 9.82, 9.83, 9.82, 9.37, 9.39, 8.94, 8.47, 8.05, 7.15, 6.71, 6.23, 7.94, 7.63, 6.8, 7.76, 8.3, 9.06, 8.72, 7.06, 6.53, 7.27, 8.31, 8.42, 8.56, 9.35, 10.28, 11.62, 12.04, 12.27, 13.49, 15.24, 16.03, 15.01, 12.49, 8.45, 4.82, 2.17, 3.2, 4.17, 8.24, 9.45, 10.09, 10.66, 11.26, 11.64, 11.28, 12.23, 12.25, 11.94, 12.33, 12.25, 11.3, 11.3, 7.07, 7.07, 7.23, 7.23, 7.23, 7.61, 7.61, 7.61, 7.76, 8.15, 8.15, 8.68, 8.68, 9.07, 9.2, 9.2, 9.6, 9.71, 10.11, 10.21, 10.21, 10.62, 10.42, 10.91, 11.08, 11.08, 11.08, 11.28, 11.28, 11.4, 11.4, 11.4, 11.4, 11.49, 11.49, 11.57, 11.12, 11.12, 11.16, 11.16, 10.71, 10.73, 10.28, 10.28, 9.83, 11.62, 11.18, 8.94, 8.49, 8.49, 8.05, 8.05, 7.6, 7.15, 6.68, 6.61, 6.94, 6.79, 8.14, 8.06, 8.56, 9.06, 8.0, 6.73, 6.64, 7.35, 7.27, 8.82, 7.81, 8.01, 8.94, 10.28, 12.04, 13.41, 14.87, 16.71, 16.71, 15.75, 15.2, 15.62, 14.73, 8.88, 8.79, 8.96, 9.3, 13.19, 13.33, 13.19, 13.6, 13.48, 13.07, 13.64, 13.33, 13.19, 13.07, 13.07, 12.4, 12.4, 7.07, 7.07, 7.07, 7.23, 7.23, 7.61, 7.61, 7.61, 7.61, 8.15, 8.15, 8.15, 8.68, 8.68, 9.2, 9.2, 9.6, 9.71, 9.71, 10.11, 10.21, 10.42, 10.42, 10.42, 10.42, 10.66, 10.66, 11.24, 11.24, 11.28, 11.28, 11.4, 11.4, 11.4, 11.49, 11.05, 11.11, 11.11, 11.11, 10.71, 10.71, 10.71, 10.27, 10.28, 9.83, 11.62, 11.62, 9.37, 8.92, 8.87, 8.86, 8.77, 8.77, 7.4, 7.69, 7.74, 7.84, 7.4, 7.51, 8.33, 8.33, 8.56, 7.82, 7.44, 7.82, 7.2, 6.79, 7.56, 8.37, 9.03, 7.42, 8.3, 10.85, 14.64, 17.42, 18.03, 16.76, 14.7, 15.12, 17.43, 18.31, 18.27, 13.21, 12.08, 12.11, 11.92, 11.92, 14.68, 14.11, 13.84, 13.42, 13.64, 13.83, 13.56, 13.15, 13.15, 12.72, 12.72, 7.07, 7.07, 7.07, 7.23, 7.23, 7.23, 7.61, 7.61, 7.61, 7.76, 8.15, 8.15, 8.28, 8.68, 9.2, 9.2, 9.2, 9.6, 9.71, 9.71, 9.92, 9.92, 10.0, 10.42, 10.42, 10.6, 10.6, 10.34, 12.09, 10.47, 10.81, 10.81, 10.94, 10.94, 10.94, 11.04, 11.04, 11.04, 10.67, 10.67, 10.66, 10.66, 10.27, 10.27, 10.27, 10.27, 10.73, 10.27, 10.22, 9.77, 9.77, 9.23, 9.23, 9.23, 8.87, 8.77, 8.33, 7.97, 7.51, 7.58, 8.33, 8.14, 7.76, 7.47, 7.76, 7.35, 7.12, 7.63, 9.03, 10.41, 8.72, 8.43, 10.4, 14.95, 19.4, 20.56, 15.91, 12.74, 13.18, 15.18, 17.42, 18.2, 17.97, 13.44, 13.26, 13.26, 12.6, 11.7, 14.92, 14.13, 13.83, 13.69, 13.25, 13.33, 13.09, 12.66, 12.18, 12.18, 7.07, 7.07, 7.07, 7.23, 7.23, 7.23, 7.61, 7.61, 7.61, 7.76, 8.15, 8.15, 8.15, 8.68, 8.68, 9.2, 9.2, 9.2, 9.2, 9.51, 9.92, 9.92, 9.92, 10.0, 10.0, 10.18, 10.18, 10.18, 10.34, 11.66, 10.01, 10.04, 10.47, 10.47, 10.47, 10.47, 10.58, 10.58, 10.58, 10.14, 10.14, 10.22, 10.22, 10.22, 10.22, 10.22, 10.27, 10.28, 10.28, 9.83, 9.83, 9.37, 9.37, 8.92, 8.92, 8.94, 8.49, 8.03, 7.58, 7.13, 7.06, 7.42, 8.6, 7.21, 7.63, 7.63, 7.12, 7.37, 8.85, 9.54, 9.36, 9.36, 9.97, 13.39, 20.5, 24.01, 18.31, 13.41, 12.52, 14.3, 16.48, 18.2, 19.0, 18.88, 14.93, 14.0, 12.64, 11.61, 15.31, 14.55, 13.77, 12.94, 12.94, 12.52, 12.52, 12.42, 11.98, 11.98, 7.07, 7.07, 7.23, 7.23, 7.23, 7.23, 7.61, 7.61, 7.61, 7.76, 7.76, 8.15, 8.15, 8.28, 8.68, 8.8, 8.8, 9.42, 9.42, 9.42, 9.51, 9.51, 9.92, 9.92, 10.12, 10.12, 10.18, 10.18, 10.18, 10.34, 10.47, 10.58, 10.58, 10.58, 10.14, 10.14, 10.14, 10.14, 10.14, 10.14, 10.13, 10.13, 9.68, 9.68, 9.68, 9.68, 9.77, 9.77, 9.82, 9.82, 9.37, 9.39, 8.94, 8.94, 8.94, 8.49, 8.49, 8.05, 7.58, 7.13, 8.41, 7.63, 7.63, 7.6, 6.8, 7.12, 7.12, 7.12, 8.06, 9.03, 8.95, 10.6, 11.35, 12.96, 18.33, 23.11, 22.26, 18.17, 16.13, 16.84, 17.42, 18.31, 18.76, 19.21, 18.27, 13.36, 12.4, 11.57, 15.12, 14.73, 13.41, 12.96, 12.07, 12.07, 12.07, 12.07, 11.62, 11.62, 7.07, 7.07, 7.23, 7.23, 7.23, 7.23, 7.23, 7.61, 7.61, 7.76, 7.76, 8.15, 8.15, 8.28, 8.28, 8.91, 8.91, 9.01, 9.42, 9.42, 9.42, 9.51, 9.51, 9.7, 10.12, 10.12, 10.12, 10.12, 10.12, 10.34, 10.47, 10.47, 10.58, 10.58, 10.66, 10.22, 10.22, 10.22, 10.22, 10.22, 10.22, 9.77, 9.77, 9.77, 9.77, 9.68, 9.68, 9.68, 9.77, 9.32, 9.32, 9.37, 8.92, 8.92, 8.94, 8.49, 8.49, 8.05, 8.05, 7.13, 6.23, 8.17, 7.63, 7.6, 8.06, 8.06, 7.12, 7.63, 8.06, 8.56, 8.91, 10.6, 12.27, 13.83, 16.54, 19.52, 21.64, 21.12, 20.23, 19.4, 17.88, 17.42, 17.42, 16.99, 16.54, 12.07, 11.18, 14.75, 13.86, 13.41, 12.94, 12.05, 12.04, 11.6, 11.6, 11.6, 11.62, 11.62, 7.07, 7.07, 7.23, 7.23, 7.23, 7.23, 7.23, 7.61, 7.61, 7.61, 7.76, 7.76, 8.15, 8.15, 8.15, 8.28, 8.91, 9.01, 9.01, 9.01, 9.42, 9.42, 9.51, 9.7, 9.7, 9.7, 9.7, 9.7, 9.7, 9.86, 9.86, 9.91, 10.04, 10.14, 10.14, 10.22, 10.22, 10.22, 10.27, 10.27, 10.27, 10.27, 10.27, 9.82, 9.82, 9.77, 9.77, 9.77, 9.32, 9.32, 9.32, 8.87, 8.86, 8.86, 8.47, 8.47, 8.47, 8.05, 8.05, 7.15, 6.68, 6.16, 8.41, 7.42, 7.85, 8.85, 7.85, 8.33, 8.33, 8.33, 9.97, 9.49, 12.94, 14.55, 16.46, 16.97, 18.5, 19.56, 21.07, 20.8, 19.21, 16.99, 15.65, 14.75, 14.75, 14.3, 13.86, 13.41, 12.94, 12.49, 12.05, 12.05, 12.04, 12.04, 11.6, 11.6, 11.62, 11.62, 7.07, 7.07, 7.23, 7.23, 7.23, 7.23, 7.23, 7.61, 7.61, 7.61, 7.76, 7.76, 7.76, 8.15, 8.15, 8.51, 8.91, 8.91, 9.01, 9.01, 9.01, 9.01, 9.63, 9.63, 9.7, 9.7, 9.7, 9.7, 9.86, 9.86, 9.86, 9.86, 9.86, 10.01, 10.01, 10.14, 10.14, 10.22, 10.22, 10.27, 10.27, 10.27, 9.83, 11.18, 9.39, 9.82, 9.77, 9.77, 9.32, 9.32, 9.23, 8.77, 8.77, 8.42, 8.42, 8.41, 8.03, 8.03, 7.6, 7.15, 7.15, 6.26, 8.49, 7.55, 8.0, 9.32, 8.0, 8.45, 8.45, 8.45, 8.9, 9.06, 11.99, 15.38, 16.25, 16.52, 16.09, 17.88, 20.12, 20.56, 19.17, 17.37, 16.08, 15.2, 14.3, 13.86, 13.39, 12.94, 12.5, 12.49, 12.49, 12.05, 12.05, 12.04, 12.04, 11.62, 11.62, 11.6, 7.07, 7.07, 7.07, 7.23, 7.23, 7.23, 7.23, 7.23, 7.61, 7.61, 7.76, 8.0, 8.0, 8.0, 8.4, 8.4, 8.51, 8.51, 8.91, 8.91, 9.01, 9.01, 9.21, 9.21, 9.21, 9.7, 9.7, 9.7, 9.86, 9.43, 9.43, 9.43, 9.43, 9.57, 9.57, 9.57, 9.68, 10.13, 10.13, 10.22, 10.22, 10.27, 9.82, 11.18, 9.83, 9.82, 9.77, 9.77, 9.32, 9.32, 8.87, 8.77, 8.33, 8.33, 8.3, 7.87, 7.97, 7.51, 7.13, 7.15, 6.71, 6.26, 8.05, 7.11, 8.0, 8.94, 8.94, 8.05, 8.45, 8.45, 8.01, 9.03, 11.35, 14.15, 17.68, 17.44, 16.07, 17.36, 18.2, 18.72, 17.88, 17.43, 16.99, 15.65, 14.75, 13.86, 13.41, 12.96, 12.52, 12.52, 12.52, 12.52, 12.52, 12.52, 12.52, 12.07, 12.07, 11.62, 7.07, 7.07, 7.07, 7.23, 7.23, 7.23, 7.23, 7.23, 7.61, 7.61, 7.87, 8.0, 8.0, 8.0, 8.4, 8.4, 8.4, 8.51, 8.51, 8.91, 8.91, 9.01, 9.21, 9.21, 9.21, 9.21, 9.21, 9.21, 9.43, 9.39, 9.39, 9.39, 9.39, 9.39, 9.54, 9.54, 9.57, 9.68, 9.68, 9.68, 9.68, 9.77, 9.77, 9.77, 11.59, 9.82, 9.77, 9.32, 9.32, 8.87, 8.87, 8.86, 8.33, 8.33, 8.3, 7.87, 7.4, 7.06, 6.61, 6.68, 6.68, 6.23, 5.81, 8.05, 8.05, 8.49, 8.05, 8.05, 8.45, 8.45, 8.33, 8.33, 10.65, 11.99, 15.02, 16.95, 17.89, 16.91, 15.56, 14.13, 13.69, 14.23, 14.75, 14.3, 13.41, 13.39, 12.94, 12.94, 12.94, 13.39, 13.39, 13.39, 13.39, 13.39, 12.94, 12.96, 12.07, 12.07, 7.07, 7.07, 7.07, 7.07, 7.23, 7.23, 7.23, 7.23, 7.23, 7.61, 7.87, 8.0, 8.0, 8.0, 8.0, 8.4, 8.4, 8.51, 8.51, 8.51, 8.51, 8.91, 9.21, 9.21, 9.21, 9.21, 9.21, 9.21, 9.39, 9.39, 9.39, 9.39, 9.39, 9.39, 9.11, 9.11, 9.11, 9.54, 9.57, 9.68, 9.68, 9.68, 9.68, 9.68, 10.13, 11.59, 9.37, 9.37, 8.92, 8.92, 8.92, 8.92, 8.42, 8.42, 8.41, 7.97, 7.51, 6.61, 6.6, 6.16, 6.23, 5.78, 7.6, 7.6, 8.05, 8.05, 8.05, 8.94, 7.6, 8.01, 8.33, 8.45, 9.76, 10.2, 11.21, 14.56, 17.99, 18.73, 15.61, 12.04, 10.73, 11.6, 12.88, 13.69, 13.69, 13.56, 14.0, 14.13, 14.13, 14.23, 14.29, 14.28, 13.86, 13.41, 12.96, 12.52, 12.52, 12.52, 7.07, 7.07, 7.07, 7.07, 7.07, 7.23, 7.23, 7.23, 7.23, 7.23, 7.61, 7.61, 8.0, 8.0, 8.0, 8.0, 8.4, 8.4, 8.51, 8.51, 8.51, 8.51, 8.72, 8.72, 9.21, 9.21, 9.21, 9.21, 9.21, 9.39, 9.39, 9.39, 8.96, 8.96, 9.11, 9.11, 9.11, 9.11, 9.11, 9.54, 9.67, 9.68, 9.68, 9.68, 10.13, 10.22, 10.27, 9.82, 9.37, 9.39, 9.39, 9.39, 8.94, 8.94, 8.49, 8.49, 7.6, 7.58, 7.13, 6.68, 6.16, 6.23, 5.78, 8.05, 8.05, 8.05, 8.49, 8.49, 7.6, 8.0, 8.45, 8.45, 9.83, 8.94, 10.28, 12.27, 16.03, 20.46, 20.15, 16.95, 14.14, 14.11, 15.27, 15.96, 15.53, 15.78, 15.34, 15.03, 15.12, 14.73, 14.75, 14.3, 13.86, 13.39, 12.49, 11.6, 11.6, 11.6, 7.07, 7.07, 7.07, 7.07, 7.07, 7.07, 7.23, 7.23, 7.23, 7.23, 7.61, 7.61, 7.61, 8.0, 8.0, 8.0, 8.4, 8.4, 8.4, 8.51, 8.51, 8.51, 8.72, 8.72, 8.72, 8.79, 8.79, 9.21, 9.21, 9.39, 8.96, 8.96, 8.96, 8.96, 8.96, 8.96, 9.11, 9.11, 9.11, 9.11, 9.11, 9.11, 9.54, 9.68, 9.68, 10.13, 10.22, 10.27, 9.82, 9.82, 9.82, 9.39, 9.39, 9.39, 8.94, 8.94, 8.49, 8.05, 7.6, 7.13, 7.13, 6.68, 6.23, 8.49, 8.05, 8.05, 8.41, 8.41, 7.42, 7.85, 8.45, 8.49, 8.94, 9.39, 9.83, 10.73, 13.65, 18.39, 21.11, 20.28, 18.71, 18.33, 18.54, 18.09, 17.17, 16.6, 15.93, 15.57, 15.2, 14.75, 14.29, 13.84, 13.33, 12.42, 11.96, 11.06, 11.06, 11.06, 7.07, 7.07, 7.07, 7.07, 7.07, 7.07, 7.07, 7.23, 7.23, 7.23, 7.61, 7.61, 7.61, 8.0, 8.0, 8.0, 8.0, 8.0, 8.4, 8.51, 8.51, 8.72, 8.72, 8.72, 8.72, 8.72, 8.79, 8.79, 8.79, 8.96, 8.96, 8.96, 8.96, 8.96, 8.96, 8.96, 8.96, 9.11, 9.11, 9.11, 9.11, 9.11, 9.11, 9.54, 9.57, 9.68, 9.68, 9.77, 9.77, 9.77, 9.77, 9.32, 9.37, 9.37, 8.92, 8.49, 8.49, 8.05, 8.05, 7.58, 7.58, 7.13, 7.13, 6.68, 8.49, 8.49, 8.41, 8.0, 8.33, 7.85, 8.94, 8.05, 8.94, 9.39, 9.83, 10.28, 11.96, 15.61, 18.58, 19.51, 19.69, 20.32, 21.08, 20.12, 17.88, 16.87, 16.3, 16.47, 15.65, 14.29, 14.26, 12.3, 12.74, 12.27, 11.36, 11.05, 11.05, 11.05, 7.07, 7.07, 7.07, 7.07, 7.07, 7.07, 7.07, 7.07, 7.23, 7.23, 7.23, 7.61, 7.61, 7.61, 8.0, 8.0, 8.0, 8.0, 8.0, 8.4, 8.51, 8.72, 8.72, 8.72, 8.72, 8.72, 8.72, 8.79, 8.96, 8.96, 8.91, 8.91, 8.91, 8.91, 8.91, 8.91, 8.91, 8.91, 8.96, 9.11, 9.11, 9.11, 9.11, 9.11, 9.11, 9.54, 9.67, 9.68, 9.68, 9.68, 9.24, 9.23, 9.32, 8.87, 8.86, 8.47, 8.03, 8.03, 8.03, 7.58, 7.58, 7.58, 7.13, 7.06, 6.68, 8.94, 8.94, 8.05, 8.49, 8.49, 8.49, 8.49, 8.49, 8.94, 9.39, 9.83, 11.15, 14.09, 15.84, 16.85, 17.99, 20.55, 22.11, 20.12, 18.31, 17.35, 17.3, 16.97, 16.54, 15.16, 12.51, 11.61, 11.61, 11.18, 10.68, 10.45, 10.45, 10.45, 7.07, 7.07, 7.07, 7.07, 7.07, 7.07, 7.07, 7.07, 7.07, 7.23, 7.23, 7.23, 7.61, 7.61, 8.0, 8.0, 8.0, 8.0, 8.0, 8.4, 8.51, 8.51, 8.72, 8.72, 8.72, 8.72, 8.72, 8.72, 8.72, 8.91, 8.91, 8.91, 8.91, 8.91, 8.91, 8.91, 8.91, 8.91, 8.91, 8.91, 8.96, 9.11, 9.11, 9.11, 9.11, 9.11, 9.11, 9.11, 9.23, 9.23, 9.23, 9.23, 9.23, 8.77, 8.33, 8.41, 7.97, 7.97, 7.51, 7.51, 7.51, 7.07, 7.06, 7.06, 6.61, 8.85, 8.41, 8.41, 8.85, 8.01, 8.45, 8.45, 8.49, 8.94, 9.39, 9.8, 11.14, 12.86, 14.21, 14.58, 16.31, 19.81, 21.7, 20.29, 19.01, 17.82, 17.37, 16.54, 15.91, 12.8, 12.04, 11.09, 10.85, 10.43, 10.01, 9.83, 9.83, 9.83, 6.79, 6.79, 6.79, 6.79, 6.79, 6.79, 7.07, 7.07, 7.07, 7.07, 7.23, 7.23, 7.61, 7.61, 7.87, 8.0, 8.0, 8.0, 8.0, 8.0, 8.0, 8.51, 8.51, 8.72, 8.72, 8.72, 8.72, 8.72, 8.72, 8.91, 8.91, 8.91, 8.91, 8.91, 8.91, 8.91, 8.91, 8.48, 8.48, 8.91, 8.91, 8.96, 8.96, 8.96, 8.96, 9.11, 9.11, 9.11, 9.11, 9.11, 9.11, 9.23, 9.23, 8.77, 8.33, 8.3, 7.87, 7.87, 7.4, 7.4, 7.4, 6.94, 6.94, 6.51, 6.04, 8.41, 8.41, 8.41, 8.85, 8.01, 8.49, 8.49, 8.94, 8.94, 9.39, 9.83, 10.25, 11.51, 12.53, 13.49, 15.1, 17.79, 19.99, 20.24, 19.48, 17.81, 15.5, 13.84, 11.99, 11.3, 10.9, 10.66, 10.23, 10.0, 9.6, 9.49, 9.49, 9.49, 6.79, 6.79, 6.79, 6.79, 6.79, 7.07, 7.07, 7.07, 7.07, 7.07, 7.07, 7.23, 7.23, 7.61, 7.61, 8.0, 8.0, 8.0, 8.0, 8.0, 8.0, 8.0, 8.0, 8.72, 8.72, 8.72, 8.72, 8.72, 8.72, 8.72, 8.72, 8.72, 8.72, 8.72, 8.72, 8.72, 8.48, 8.48, 8.48, 8.48, 8.48, 8.91, 8.91, 8.96, 8.96, 8.96, 8.96, 8.96, 8.96, 9.11, 9.11, 9.11, 9.07, 8.64, 8.21, 8.17, 8.17, 7.74, 7.69, 7.26, 7.21, 6.79, 6.79, 6.3, 6.3, 7.63, 7.85, 8.0, 8.01, 8.45, 8.9, 8.9, 8.94, 8.94, 9.39, 9.83, 9.8, 10.14, 11.36, 12.3, 13.49, 14.83, 16.45, 18.33, 18.89, 17.85, 11.18, 8.82, 7.73, 7.68, 7.59, 8.22, 9.0, 9.04, 8.67, 8.63, 8.63, 8.63, 6.79, 6.7, 7.07, 7.07, 7.07, 7.07, 7.07, 7.07, 7.07, 7.07, 7.07, 7.23, 7.23, 7.61, 7.61, 7.61, 8.0, 8.0, 8.0, 8.0, 8.0, 8.0, 8.0, 8.0, 8.22, 8.3, 8.3, 8.3, 8.72, 8.72, 8.72, 8.72, 8.72, 8.72, 8.3, 8.3, 8.48, 8.48, 8.3, 8.3, 8.3, 8.3, 8.91, 8.91, 8.91, 8.91, 8.91, 8.91, 8.91, 8.91, 8.91, 8.48, 8.48, 8.64, 8.64, 8.17, 8.17, 7.74, 7.69, 7.69, 7.26, 7.21, 6.79, 6.3, 6.1, 7.63, 7.42, 8.0, 8.01, 8.45, 8.45, 8.77, 8.77, 9.35, 9.35, 9.39, 9.39, 9.8, 10.14, 11.18, 12.3, 12.98, 14.3, 16.31, 19.25, 15.95, 11.62, 8.05, 6.26, 5.75, 5.43, 5.13, 6.51, 7.27, 7.35, 7.69, 7.69, 7.69, 6.7, 6.7, 7.07, 7.07, 7.07, 7.07, 7.07, 7.07, 7.07, 7.07, 7.07, 7.23, 7.23, 7.61, 7.61, 7.61, 7.61, 7.76, 8.0, 8.0, 8.0, 8.0, 8.0, 8.0, 8.0, 8.22, 8.22, 8.3, 8.3, 8.3, 8.3, 8.3, 8.3, 8.3, 8.3, 8.3, 8.3, 8.3, 8.3, 8.3, 8.3, 8.3, 8.3, 8.72, 8.72, 8.91, 8.91, 8.91, 8.91, 8.91, 8.91, 8.48, 8.48, 8.48, 8.42, 8.0, 8.0, 8.0, 8.0, 7.51, 7.51, 7.01, 7.01, 6.6, 6.1, 5.88, 7.85, 7.85, 7.85, 8.0, 8.0, 8.45, 8.77, 8.56, 9.24, 9.35, 9.39, 9.39, 9.8, 10.6, 11.36, 12.09, 13.23, 16.05, 21.44, 18.78, 14.75, 11.15, 9.72, 8.82, 6.71, 4.46, 4.03, 5.1, 5.69, 6.11, 6.11, 6.11, 6.7, 6.7, 7.07, 7.07, 7.07, 7.07, 7.23, 7.23, 7.23, 7.23, 7.23, 7.23, 7.23, 7.61, 7.61, 7.61, 7.61, 7.61, 7.76, 8.0, 8.0, 8.0, 8.0, 8.0, 8.0, 8.0, 8.22, 8.22, 8.22, 8.22, 8.3, 8.3, 8.3, 8.3, 8.3, 8.3, 8.3, 8.3, 8.3, 8.3, 8.3, 8.3, 8.3, 8.3, 8.3, 8.72, 8.72, 8.72, 8.72, 8.91, 8.91, 8.48, 8.3, 8.22, 8.0, 8.0, 8.0, 8.0, 8.0, 7.51, 7.51, 7.09, 7.01, 7.01, 6.51, 5.6, 7.63, 7.85, 7.85, 8.0, 8.0, 8.01, 8.45, 7.85, 8.56, 8.56, 8.9, 9.39, 9.83, 10.28, 10.7, 11.51, 12.74, 20.95, 22.35, 19.67, 16.54, 13.86, 12.52, 12.07, 9.83, 6.21, 3.58, 3.48, 4.6, 4.98, 4.98, 4.98, 7.07, 7.07, 7.07, 7.07, 7.07, 7.07, 7.23, 7.23, 7.23, 7.23, 7.23, 7.23, 7.23, 7.61, 7.61, 7.61, 7.61, 7.61, 7.61, 7.61, 7.87, 8.0, 8.0, 8.0, 8.0, 8.0, 8.0, 8.22, 8.22, 8.22, 8.22, 8.22, 8.3, 8.3, 8.3, 8.3, 8.22, 8.22, 8.3, 8.3, 8.3, 8.3, 8.3, 8.3, 8.3, 8.3, 8.3, 8.72, 8.72, 8.72, 8.72, 8.72, 8.22, 8.22, 7.81, 7.81, 7.81, 7.81, 8.0, 7.93, 7.51, 7.51, 7.43, 7.01, 6.6, 6.1, 5.81, 5.57, 8.33, 8.45, 8.45, 8.45, 8.45, 8.05, 7.6, 7.85, 8.45, 8.94, 9.39, 9.83, 9.83, 10.7, 15.47, 20.3, 21.26, 18.2, 14.75, 12.44, 11.71, 10.6, 9.11, 5.77, 4.02, 3.9, 4.34, 4.47, 4.47, 4.47, 7.07, 7.07, 7.07, 7.07, 7.07, 7.07, 7.23, 7.23, 7.23, 7.23, 7.23, 7.23, 7.61, 7.61, 7.61, 7.61, 7.61, 7.61, 7.61, 7.61, 7.87, 7.87, 7.87, 8.0, 8.0, 8.0, 8.0, 8.0, 8.22, 8.22, 8.22, 8.22, 8.22, 8.22, 8.22, 8.22, 8.22, 8.22, 8.22, 8.22, 8.3, 8.3, 8.3, 8.3, 8.3, 8.3, 8.3, 8.3, 8.3, 8.72, 8.72, 8.72, 8.22, 8.22, 7.71, 7.71, 7.71, 7.71, 7.71, 7.71, 7.31, 7.31, 7.2, 7.2, 6.8, 6.28, 6.28, 6.1, 8.14, 8.77, 8.77, 8.9, 8.9, 8.49, 8.49, 8.05, 8.05, 8.49, 8.94, 8.94, 8.94, 9.83, 13.65, 17.68, 19.31, 16.33, 11.96, 7.55, 5.43, 5.37, 4.74, 3.58, 3.35, 3.39, 3.9, 3.58, 3.58, 3.58, 6.79, 6.79, 6.79, 7.07, 7.07, 7.07, 7.23, 7.23, 7.23, 7.23, 7.23, 7.61, 7.61, 7.61, 7.61, 7.61, 7.87, 7.87, 7.87, 7.87, 7.87, 7.48, 7.48, 8.0, 8.0, 8.0, 8.0, 8.0, 8.0, 8.0, 8.22, 8.22, 8.22, 8.22, 8.22, 8.22, 8.22, 8.22, 8.22, 8.22, 8.22, 8.3, 8.3, 8.3, 8.3, 8.3, 8.3, 8.22, 8.22, 8.22, 8.3, 8.72, 8.3, 8.22, 7.81, 7.48, 7.48, 7.71, 7.71, 7.71, 7.71, 7.71, 6.95, 6.95, 6.56, 6.56, 6.03, 6.28, 6.6, 8.56, 8.77, 8.77, 8.9, 8.49, 8.49, 8.49, 8.49, 8.49, 8.45, 8.49, 8.49, 9.83, 11.51, 14.87, 18.11, 16.76, 11.23, 4.92, 0.0, 0.0, 0.88, 1.6, 1.74, 2.53, 3.39, 3.58, 3.58, 3.58, 6.79, 6.79, 6.79, 6.79, 6.79, 7.07, 7.07, 7.23, 7.23, 7.23, 7.61, 7.61, 7.61, 7.61, 7.61, 7.61, 7.87, 8.0, 7.87, 7.87, 7.48, 7.48, 7.48, 7.48, 7.87, 8.0, 8.0, 8.0, 8.0, 8.0, 8.0, 8.0, 8.22, 8.22, 8.22, 8.22, 8.22, 8.22, 8.22, 8.22, 8.22, 8.22, 8.3, 8.3, 8.3, 8.3, 8.3, 8.22, 8.0, 8.0, 8.0, 8.3, 8.3, 8.22, 8.22, 7.71, 7.48, 7.48, 7.08, 7.48, 7.48, 7.48, 7.48, 6.95, 6.95, 6.56, 6.41, 6.41, 6.41, 8.0, 8.3, 8.56, 8.56, 8.33, 8.45, 8.45, 8.33, 8.45, 8.33, 8.45, 8.49, 9.39, 10.7, 13.39, 17.26, 18.03, 14.15, 8.46, 2.97, 0.0, 1.0, 2.4, 3.13, 4.02, 4.02, 3.9, 3.9, 3.9, 6.79, 6.79, 6.79, 6.79, 6.79, 6.79, 6.79, 7.07, 7.23, 7.23, 7.61, 7.61, 7.61, 7.61, 7.61, 7.61, 7.61, 7.87, 8.0, 7.87, 7.87, 7.48, 7.48, 7.48, 7.48, 7.48, 7.87, 8.0, 8.0, 8.0, 8.0, 8.0, 8.0, 8.0, 8.0, 8.0, 8.0, 8.0, 8.0, 8.0, 8.0, 8.0, 8.0, 8.0, 8.1, 8.0, 8.0, 8.0, 8.0, 8.0, 8.0, 8.0, 8.0, 8.0, 8.22, 7.81, 7.48, 7.48, 7.34, 7.48, 7.48, 7.48, 7.48, 7.07, 6.7, 6.51, 6.51, 6.15, 6.15, 7.81, 8.4, 8.3, 8.14, 7.63, 7.85, 8.33, 8.33, 8.33, 8.14, 8.45, 8.94, 9.39, 10.73, 12.96, 16.54, 18.76, 17.42, 13.84, 9.83, 7.15, 6.07, 6.0, 6.64, 7.76, 7.35, 7.2, 7.2, 7.2, 6.79, 6.79, 6.79, 6.79, 6.79, 6.79, 6.79, 6.79, 6.79, 7.07, 7.23, 7.61, 7.61, 7.61, 7.61, 7.61, 7.61, 7.61, 7.87, 7.87, 7.87, 7.87, 7.87, 7.48, 7.48, 7.48, 7.48, 7.87, 8.0, 8.0, 8.0, 8.0, 8.0, 8.0, 8.0, 8.0, 8.0, 8.0, 8.0, 8.0, 8.0, 8.0, 8.0, 8.0, 8.0, 8.0, 8.0, 8.0, 8.0, 8.0, 8.0, 8.0, 8.0, 8.0, 8.0, 7.6, 7.48, 7.48, 7.48, 7.07, 7.48, 7.87, 8.0, 7.23, 7.07, 6.51, 6.51, 6.51, 6.23, 6.79, 7.48, 8.4, 8.3, 8.14, 8.14, 8.33, 8.45, 8.45, 8.49, 8.45, 8.94, 9.83, 11.18, 12.96, 16.54, 18.78, 18.33, 16.09, 14.29, 12.43, 11.23, 10.38, 10.53, 10.55, 10.55, 10.43, 10.43, 10.43, 7.07, 7.07, 6.79, 6.79, 6.79, 6.57, 6.79, 6.79, 6.79, 6.79, 7.07, 7.23, 7.61, 7.61, 7.61, 7.61, 7.61, 7.61, 7.61, 7.61, 7.87, 7.87, 7.87, 7.87, 7.48, 7.48, 7.48, 7.48, 7.48, 8.0, 8.0, 8.0, 8.0, 8.0, 8.0, 8.0, 8.0, 8.0, 8.0, 8.0, 8.0, 8.0, 8.0, 8.0, 8.0, 8.0, 8.0, 8.0, 8.0, 8.0, 8.0, 8.0, 8.0, 8.0, 8.0, 7.87, 7.87, 7.87, 7.23, 7.07, 7.07, 7.48, 8.0, 7.61, 6.79, 6.57, 6.23, 6.23, 6.23, 6.57, 6.79, 8.95, 8.72, 9.54, 7.89, 8.45, 8.9, 8.94, 8.94, 8.9, 9.39, 10.25, 10.7, 12.49, 15.63, 18.33, 18.78, 16.97, 14.29, 12.88, 12.18, 12.01, 11.95, 11.72, 11.52, 11.52, 11.52, 11.52, 7.23, 7.23, 7.07, 7.07, 6.79, 6.79, 6.57, 6.57, 6.79, 6.79, 6.79, 6.79, 7.23, 7.61, 7.61, 7.61, 7.61, 7.61, 7.61, 7.61, 7.61, 7.61, 7.87, 7.87, 7.48, 7.48, 7.48, 7.48, 7.48, 7.48, 8.0, 8.0, 8.0, 8.0, 8.0, 8.0, 8.0, 8.0, 8.0, 8.0, 8.0, 8.0, 8.0, 8.0, 8.0, 8.0, 8.0, 8.0, 8.0, 8.0, 8.0, 8.0, 8.0, 8.0, 8.0, 7.87, 7.61, 7.61, 7.23, 7.07, 7.07, 7.07, 7.61, 7.76, 7.35, 6.79, 6.28, 6.28, 6.28, 6.28, 6.79, 7.61, 7.71, 9.97, 8.33, 8.45, 8.9, 8.9, 8.45, 8.77, 8.8, 9.7, 10.6, 11.96, 14.73, 17.88, 18.76, 17.36, 14.67, 13.31, 12.27, 12.09, 11.71, 12.18, 11.71, 11.66, 11.66, 11.66, 7.23, 7.23, 7.07, 7.07, 6.79, 6.79, 6.57, 6.57, 6.79, 6.79, 6.79, 6.79, 7.23, 7.61, 7.61, 7.61, 7.61, 7.61, 7.61, 7.61, 7.61, 7.61, 7.87, 7.87, 7.48, 7.48, 7.48, 7.48, 7.48, 7.48, 8.0, 8.0, 8.0, 8.0, 8.0, 8.0, 8.0, 8.0, 8.0, 8.0, 8.0, 8.0, 8.0, 8.0, 8.0, 8.0, 8.0, 8.0, 8.0, 8.0, 8.0, 8.0, 8.0, 8.0, 8.0, 7.87, 7.61, 7.61, 7.23, 7.07, 7.07, 7.07, 7.61, 7.76, 7.35, 6.79, 6.28, 6.28, 6.28, 6.28, 6.79, 7.61, 7.71, 9.97, 8.33, 8.45, 8.9, 8.9, 8.45, 8.77, 8.8, 9.68, 10.14, 11.51, 13.39, 16.09, 18.26, 17.72, 15.47, 13.65, 12.74, 12.74, 12.3, 12.27, 12.27, 11.84, 11.84, 11.84]}, {"header": {"dx": 0.06612293990616946, "dy": 0.0552356325346848, "nx": 98, "ny": 59, "la1": 35.046912555036876, "la2": 31.78801023549047, "lo1": -121.43107172385933, "lo2": -114.95102361305473, "refTime": "2026042500", "parameterCategory": 1, "parameterNumber": 3}, "data": [-5.95, -5.95, -5.95, -5.95, -5.7, -5.7, -5.29, -5.06, -5.06, -5.32, -4.66, -4.0, -3.25, -2.59, -1.68, -0.81, 0.0, 0.0, 0.0, 0.0, 0.0, 1.26, 1.67, 0.81, 0.0, 0.0, -0.81, -0.81, -2.54, -5.21, -6.26, -5.73, -5.36, -5.36, -5.29, -4.98, -4.98, -4.6, -4.6, -3.63, -3.47, -3.97, -4.14, -3.8, -2.83, -2.44, -1.75, -0.81, 0.0, 0.85, 3.36, 4.8, 6.7, 7.38, 8.18, 7.25, 7.25, 6.31, 5.48, 4.81, 3.96, 3.23, 3.23, 3.11, 3.11, 3.23, 3.23, 3.23, 3.23, 3.23, 3.23, 3.23, 2.45, 1.65, 1.6, 0.83, 0.0, 0.0, 0.0, -0.85, -0.82, -1.68, -1.6, -1.67, -1.65, -2.12, -1.73, -1.73, -0.89, -0.94, -0.84, 0.0, 0.0, 0.0, 0.0, 0.0, 0.0, 1.73, -5.7, -5.95, -5.95, -5.95, -5.95, -5.7, -5.29, -5.06, -5.32, -5.08, -4.69, -4.92, -4.07, -3.21, -2.49, -1.22, -0.85, 0.0, 0.0, 0.0, 0.0, 1.4, 1.4, 1.26, 0.89, 0.0, -0.85, -1.67, -2.54, -4.43, -5.81, -5.81, -5.81, -5.81, -5.73, -5.51, -5.51, -4.98, -4.6, -4.54, -4.74, -4.56, -4.29, -2.64, -0.84, 0.0, 0.85, 1.75, 3.36, 5.14, 6.45, 7.51, 7.9, 7.19, 7.19, 6.65, 5.8, 4.93, 4.21, 3.96, 3.23, 3.23, 2.45, 2.37, 2.37, 2.45, 2.45, 4.06, 4.93, 5.6, 4.81, 4.1, 3.34, 2.45, 1.6, 0.83, 0.0, 0.0, 0.0, -0.85, -0.82, -1.68, -1.6, -1.67, -1.65, -2.12, -1.73, -1.73, -0.89, -0.94, -0.84, 0.0, 0.0, 0.0, 0.0, 0.0, 0.0, 1.73, -5.7, -5.7, -5.7, -5.95, -5.95, -5.7, -5.29, -5.06, -5.32, -5.08, -4.69, -4.03, -4.07, -4.07, -3.06, -2.47, -1.68, -1.68, -0.89, 0.0, 0.0, 0.0, 0.0, 1.4, 1.4, 0.0, 0.0, -1.75, -3.6, -5.15, -6.2, -6.26, -6.26, -7.15, -6.2, -7.01, -5.73, -5.73, -5.94, -5.21, -4.11, -1.83, 0.0, 0.89, 2.67, 3.32, 4.07, 5.14, 5.63, 7.24, 7.38, 7.38, 7.38, 6.43, 5.68, 4.93, 4.75, 4.06, 4.06, 3.23, 3.23, 2.45, 2.45, 2.45, 2.37, 2.53, 4.87, 6.7, 7.12, 7.01, 5.48, 4.1, 2.45, 1.6, 0.83, 0.8, 0.0, 0.0, 0.0, -0.82, -0.82, -1.68, -1.67, -2.54, -2.26, -2.35, -2.35, -2.82, -2.51, -1.73, -1.73, -1.73, -0.84, -0.84, -0.84, 0.0, 0.89, 2.51, -5.7, -5.7, -5.7, -5.7, -5.7, -5.7, -5.7, -5.06, -5.32, -5.08, -5.09, -4.69, -4.07, -3.88, -3.36, -3.36, -3.36, -2.83, -2.47, -1.6, -0.85, 0.0, 0.0, 0.0, 0.0, 0.0, 0.0, -1.73, -4.42, -5.82, -6.51, -6.65, -6.64, -7.01, -6.58, -6.71, -6.26, -6.26, -4.85, -2.98, 0.0, 2.95, 5.15, 6.01, 5.76, 5.9, 5.76, 6.0, 6.45, 7.24, 6.53, 6.56, 5.93, 5.72, 5.06, 5.06, 4.06, 4.06, 3.32, 3.23, 2.39, 2.39, 1.65, 1.65, 2.44, 5.63, 8.12, 8.85, 8.01, 6.67, 4.81, 3.23, 1.6, 0.7, 0.0, 0.0, 0.0, -0.79, -0.82, -0.82, -1.47, -1.6, -1.75, -1.73, -2.64, -2.82, -2.82, -2.82, -2.82, -2.82, -2.82, -1.73, -1.73, -0.89, 0.0, 0.83, 2.82, 3.55, -5.7, -5.7, -5.7, -5.7, -5.7, -5.7, -5.7, -5.06, -5.32, -5.08, -5.09, -4.69, -5.06, -3.65, -3.36, -3.36, -3.78, -3.36, -3.36, -2.47, -2.7, -1.47, -1.4, -1.4, -0.84, 0.0, -1.4, -2.8, -4.43, -5.58, -6.7, -6.94, -6.45, -5.94, -6.51, -6.26, -6.26, -4.92, -1.26, 4.02, 6.2, 6.7, 7.2, 7.06, 6.53, 6.42, 6.31, 6.57, 6.45, 6.7, 6.33, 5.72, 5.51, 4.87, 4.87, 4.17, 3.91, 3.32, 3.23, 2.45, 1.61, 1.55, 1.65, 2.51, 5.52, 9.34, 10.28, 9.89, 8.59, 6.43, 4.81, 3.34, 2.14, 0.83, 0.0, -0.7, -0.79, -1.69, -1.62, -1.43, -2.17, -2.57, -2.54, -2.51, -2.64, -2.64, -2.82, -2.82, -2.64, -1.84, -1.84, -1.84, -0.89, 0.0, 1.84, 3.55, 3.77, 3.55, -5.29, -5.7, -5.7, -5.7, -5.7, -5.7, -5.46, -5.32, -5.32, -5.08, -5.09, -4.83, -5.06, -4.4, -3.65, -3.36, -4.07, -3.82, -4.07, -4.07, -4.4, -3.45, -2.69, -1.49, -1.49, -1.4, -1.41, 0.0, 0.0, -2.0, -4.54, -6.21, -6.18, -5.49, -4.84, -4.92, -4.98, -1.98, 2.98, 6.64, 7.1, 8.06, 7.42, 7.41, 7.68, 7.9, 8.12, 8.01, 7.51, 6.45, 5.63, 5.63, 5.63, 4.87, 4.87, 3.91, 3.19, 2.53, 2.45, 1.61, 1.55, 0.83, 1.58, 5.06, 10.04, 11.64, 10.63, 9.56, 8.3, 6.43, 4.98, 3.87, 3.34, 1.54, 0.0, -0.82, -0.85, -0.82, -0.82, -2.47, -3.49, -3.32, -3.45, -3.55, -3.72, -2.8, -1.72, -1.03, -0.96, 0.0, 0.0, 0.0, 1.84, 3.72, 4.16, 3.4, 3.4, 2.51, -5.06, -5.06, -5.72, -5.72, -5.72, -5.72, -5.72, -5.32, -5.32, -5.08, -5.09, -5.1, -5.06, -5.06, -4.8, -4.07, -4.25, -4.44, -4.25, -4.6, -4.6, -4.25, -3.32, -2.83, -1.58, -1.63, 0.0, 3.48, 5.21, 3.22, 0.0, -2.8, -3.55, -2.82, -1.72, -0.99, -2.4, -0.0, 3.6, 5.29, 7.15, 7.63, 7.6, 8.15, 8.15, 8.22, 9.06, 8.66, 8.01, 7.24, 6.97, 5.76, 5.63, 4.68, 4.17, 3.19, 2.44, 1.6, 1.65, 0.78, 0.83, 0.86, 4.56, 10.0, 12.15, 11.88, 10.58, 9.17, 7.38, 6.31, 4.71, 3.25, 2.25, 1.55, 0.0, 0.0, 0.0, 0.0, 0.0, -0.85, -2.57, -3.45, -3.77, -2.99, -2.2, -0.79, 0.0, 1.05, 0.88, 0.96, 1.6, 3.11, 4.58, 4.16, 3.4, 2.67, 2.67, 1.73, -5.06, -5.32, -5.32, -5.32, -5.72, -5.72, -5.32, -5.32, -5.08, -5.34, -5.09, -5.36, -5.46, -5.29, -5.92, -4.71, -4.6, -5.0, -4.5, -4.8, -3.95, -3.69, -3.39, -3.39, -2.47, 0.0, 0.0, 3.0, 5.72, 4.29, 1.63, 0.0, 1.84, 1.63, 2.35, 3.2, 1.7, 1.2, 3.58, 5.36, 6.71, 7.06, 7.2, 7.44, 7.56, 8.53, 8.85, 9.48, 8.76, 7.96, 6.7, 6.0, 5.0, 4.01, 3.29, 2.44, 1.64, 0.83, 0.83, 0.8, 0.0, 3.45, 8.95, 12.37, 12.7, 11.28, 10.58, 8.3, 6.43, 4.81, 3.25, 2.47, 0.79, 0.0, 0.0, 0.0, 0.0, 0.0, 0.0, 0.0, 0.0, -0.81, -1.2, 0.0, 1.0, 1.74, 1.8, 1.99, 1.84, 1.98, 2.47, 3.64, 3.55, 3.55, 2.67, 1.84, 1.73, 0.89, -5.06, -5.32, -5.32, -5.32, -5.32, -5.32, -5.32, -5.72, -5.46, -5.72, -5.72, -5.72, -7.27, -6.31, -6.31, -6.59, -6.41, -6.0, -5.76, -5.52, -4.8, -4.8, -4.44, -4.3, -3.39, -2.33, 0.0, 1.49, 4.29, 2.82, 1.32, 4.11, 6.07, 5.72, 5.37, 4.5, 4.14, 5.6, 6.58, 7.01, 8.06, 8.0, 7.44, 6.64, 6.58, 7.35, 8.53, 9.76, 9.17, 8.3, 7.68, 6.31, 6.0, 4.8, 4.13, 3.39, 2.6, 1.56, 0.82, 0.0, 1.67, 7.82, 11.66, 13.49, 12.79, 11.28, 9.8, 8.18, 5.6, 3.96, 2.39, 0.72, 0.0, -0.72, -0.75, -0.86, -0.85, -0.85, -0.82, 0.0, 0.0, 0.0, -0.0, 1.26, 2.24, 1.2, 0.87, 0.96, 0.88, 0.82, 1.6, 1.6, 1.6, 1.84, 0.89, 0.89, 0.89, 0.89, -5.32, -5.32, -5.32, -5.32, -5.32, -5.32, -5.32, -5.72, -5.72, -5.72, -6.0, -6.35, -6.35, -6.0, -6.41, -7.13, -7.42, -7.9, -7.56, -7.59, -7.27, -7.27, -6.98, -6.24, -5.98, -4.05, -1.26, 0.0, 3.0, 2.82, 2.82, 4.74, 7.01, 6.64, 5.69, 3.8, 4.14, 5.58, 8.63, 8.54, 7.44, 6.73, 5.89, 4.96, 4.96, 7.41, 7.76, 7.27, 8.22, 8.12, 7.36, 8.22, 7.48, 7.59, 6.83, 5.9, 5.06, 4.4, 2.59, 0.85, 5.77, 12.27, 15.3, 14.17, 12.86, 11.64, 10.18, 8.79, 6.29, 4.06, 1.65, 0.0, -0.7, -2.13, -3.04, -3.53, -3.39, -3.25, -2.21, -1.54, -1.55, -1.9, -0.85, -1.58, -1.79, -1.0, -1.6, -1.66, -0.81, -0.81, 0.0, 0.0, 0.0, 0.0, 0.0, 0.83, 0.95, 1.84, -5.32, -5.32, -5.32, -5.32, -5.32, -5.32, -5.32, -5.72, -5.72, -6.0, -6.35, -6.64, -6.98, -6.34, -6.94, -6.45, -6.84, -5.72, -5.36, -5.1, -6.42, -6.04, -5.63, -4.5, -4.96, -2.69, -1.32, 1.32, 4.02, 2.82, 2.69, 4.87, 5.95, 5.24, 3.72, 2.69, 4.2, 7.56, 7.41, 7.68, 6.53, 5.76, 5.21, 4.88, 6.32, 7.42, 7.82, 7.15, 6.64, 7.35, 9.04, 10.43, 10.63, 10.96, 10.55, 10.04, 9.67, 7.59, 3.32, 3.33, 10.45, 15.45, 15.56, 14.58, 13.43, 12.89, 12.27, 10.91, 8.22, 5.0, 1.64, 0.0, -1.48, -4.24, -5.8, -6.53, -5.86, -5.76, -4.25, -3.21, -2.18, -0.73, 0.0, -3.35, -3.47, -3.58, -3.6, -3.58, -2.41, -1.8, -1.8, -0.98, 0.0, 0.0, 0.0, 0.89, 1.98, 2.8, -5.08, -5.08, -5.32, -5.32, -5.32, -5.32, -5.32, -5.72, -5.72, -5.72, -6.08, -6.35, -6.98, -6.98, -6.31, -5.62, -4.51, -3.89, -3.91, -3.27, -2.77, -1.71, -1.1, -1.16, 0.0, 0.0, 1.18, 2.75, 3.63, 2.69, 2.46, 3.63, 4.5, 4.26, 2.54, 1.75, 3.88, 5.9, 6.83, 5.9, 5.64, 5.06, 4.34, 4.96, 6.9, 7.85, 9.03, 8.63, 8.63, 9.04, 10.18, 11.61, 12.74, 13.21, 12.58, 12.3, 11.64, 8.93, 4.12, 6.21, 13.39, 15.78, 15.35, 14.17, 14.17, 15.0, 14.83, 13.35, 10.66, 7.36, 4.92, 2.87, 0.0, -4.24, -7.38, -8.53, -8.31, -7.18, -6.05, -4.6, -0.89, 1.72, 2.99, -2.8, -3.47, -4.02, -4.02, -4.02, -3.47, -2.98, -2.6, -1.9, -1.0, 0.0, 0.0, 1.05, 1.99, 1.84, -5.08, -5.08, -5.08, -5.32, -5.32, -5.32, -5.32, -5.72, -5.72, -5.72, -6.35, -6.35, -6.7, -7.26, -6.96, -6.5, -5.28, -4.07, -2.87, -2.32, -1.75, -0.58, 0.0, 0.58, 1.15, 1.72, 2.28, 3.39, 2.82, 1.73, 1.69, 2.49, 3.36, 2.47, 1.68, 2.47, 3.88, 4.71, 5.06, 5.06, 4.2, 4.2, 4.12, 5.15, 7.5, 8.49, 8.85, 8.85, 8.85, 9.29, 8.8, 9.36, 9.83, 10.26, 11.35, 11.45, 10.94, 9.48, 4.2, 8.06, 13.83, 14.4, 13.49, 12.98, 14.21, 14.64, 14.56, 13.99, 12.15, 10.63, 8.95, 6.56, 2.69, -1.99, -6.6, -8.72, -8.95, -8.43, -6.06, -2.47, 2.47, 5.24, 5.21, 4.5, 0.0, -2.68, -3.58, -3.95, -3.95, -3.58, -3.13, -2.24, -1.79, 0.0, 0.0, 1.08, 0.88, 0.96, -5.08, -5.08, -5.08, -5.08, -5.32, -5.32, -5.32, -5.32, -5.72, -5.72, -5.98, -6.08, -6.34, -6.71, -6.96, -6.94, -6.46, -5.42, -4.01, -3.58, -2.33, -1.76, -0.59, 0.0, 0.58, 1.17, 1.74, 2.33, 2.94, 2.26, 1.14, 0.82, 1.18, 0.81, 1.68, 2.35, 2.35, 3.49, 3.32, 3.32, 3.49, 2.44, 4.14, 6.64, 7.6, 8.05, 7.15, 7.94, 7.94, 7.94, 8.38, 8.49, 8.05, 8.05, 7.89, 5.82, 6.63, 6.16, 5.8, 8.8, 12.49, 13.37, 13.02, 13.02, 12.3, 12.09, 11.71, 11.23, 11.2, 8.93, 8.66, 6.18, 4.34, 0.96, -3.22, -6.17, -6.26, -4.98, 0.0, 3.33, 5.89, 6.04, 4.28, 3.8, 3.79, 2.99, 0.0, -3.13, -3.6, -3.6, -2.98, -2.21, -2.0, -2.24, -1.2, 0.0, 0.0, 0.0, -5.34, -5.08, -5.08, -5.08, -5.08, -5.32, -5.32, -5.32, -5.72, -5.98, -5.7, -6.34, -6.34, -6.33, -6.7, -6.94, -6.92, -6.43, -5.38, -4.81, -3.55, -2.31, -1.74, -0.58, 0.0, 0.0, 1.13, 1.76, 2.35, 2.3, 1.71, 0.57, 0.0, 0.0, 1.22, 1.16, 2.39, 3.32, 3.45, 2.44, 1.75, 1.26, 4.29, 6.58, 7.6, 7.6, 8.05, 7.5, 7.5, 7.01, 7.01, 7.01, 7.01, 6.64, 6.4, 5.72, 3.0, 1.52, 4.58, 9.42, 10.68, 10.46, 9.6, 9.6, 9.6, 10.05, 10.05, 8.93, 7.56, 6.24, 5.76, 2.8, 1.08, 0.89, -0.0, -0.0, 3.13, 4.43, 6.64, 7.48, 6.57, 4.92, 2.83, 2.23, 1.49, 2.51, 1.98, 0.0, -2.68, -3.58, -2.95, -2.41, -2.6, -2.24, -2.4, -1.4, 0.0, 0.0, -5.34, -5.08, -5.08, -5.08, -5.08, -5.32, -5.32, -5.32, -5.72, -5.7, -5.7, -5.95, -6.34, -6.33, -6.31, -6.29, -6.92, -6.46, -5.73, -5.38, -4.13, -3.55, -2.4, -1.74, -0.58, 0.0, 0.57, 1.18, 1.76, 1.77, 1.73, 1.14, 0.0, 0.0, 0.0, 0.77, 2.47, 2.57, 2.39, 1.33, 0.84, 1.73, 4.02, 7.01, 7.15, 7.6, 7.6, 7.5, 7.06, 7.06, 6.64, 6.64, 6.52, 6.52, 5.37, 4.29, 2.66, 1.4, 5.1, 8.22, 8.42, 7.56, 6.64, 6.32, 5.31, 6.63, 5.37, 6.32, 6.64, 5.21, 2.69, 0.0, -1.08, 0.96, 4.4, 6.45, 9.03, 9.96, 9.8, 8.18, 6.56, 4.8, 2.47, 0.85, 0.0, 0.0, 0.89, 0.0, 0.0, -2.68, -2.95, -3.6, -2.68, -2.24, -1.79, -1.79, -1.26, -1.26, -5.34, -5.34, -5.08, -5.08, -5.08, -5.32, -5.32, -5.32, -5.32, -5.7, -5.7, -5.95, -5.69, -6.33, -6.31, -6.29, -6.27, -6.25, -5.77, -5.25, -4.7, -4.13, -3.44, -2.33, -1.18, -0.59, 0.0, 0.0, 0.0, 0.0, 0.58, 0.0, 0.0, 0.0, 0.0, 0.0, 0.81, 1.33, 1.2, 1.2, 1.25, 2.6, 5.72, 5.6, 7.06, 7.5, 7.63, 7.63, 6.9, 6.28, 5.37, 6.28, 6.63, 6.63, 6.63, 5.31, 3.8, 4.96, 6.3, 7.59, 7.59, 6.3, 4.66, 3.52, 4.0, 3.4, 4.14, 3.91, 4.14, 2.69, 0.0, -1.6, 0.0, 3.82, 6.18, 9.04, 10.58, 11.06, 10.54, 8.72, 6.65, 4.68, 2.47, 1.44, 0.0, 0.0, 0.0, 0.0, -1.9, -2.53, -3.48, -3.22, -1.2, 0.0, 1.79, 0.0, 0.0, 0.0, -5.09, -5.34, -5.34, -5.08, -5.08, -5.08, -5.32, -5.32, -5.32, -5.7, -5.7, -5.7, -5.69, -5.92, -5.67, -5.64, -6.27, -5.83, -5.8, -5.28, -4.74, -4.7, -3.47, -2.28, -1.77, -1.18, -1.13, -1.13, -1.18, -1.18, -1.15, -0.58, -0.6, -1.17, -1.15, -0.85, 0.0, 0.0, 0.0, 0.0, 2.82, 4.56, 5.06, 6.08, 6.9, 7.6, 6.63, 6.28, 6.63, 5.31, 5.31, 5.31, 6.63, 6.63, 6.63, 6.01, 6.32, 6.01, 6.95, 6.69, 5.98, 4.6, 3.45, 3.7, 2.58, 1.75, 0.84, 1.25, 0.0, 0.0, 0.0, 0.8, 3.17, 5.51, 7.11, 8.06, 8.99, 8.74, 7.82, 7.11, 5.55, 4.06, 2.49, 1.52, 0.85, 0.0, 0.0, -1.99, -2.21, -2.24, -1.4, -1.4, 2.21, 3.9, 4.02, 3.39, 2.21, 2.21, -5.09, -5.09, -5.34, -5.34, -5.08, -5.08, -5.08, -5.32, -5.32, -5.06, -5.7, -5.7, -5.69, -5.69, -5.92, -6.43, -5.89, -5.86, -5.17, -4.81, -4.74, -5.21, -5.25, -4.16, -3.17, -2.31, -2.28, -3.17, -3.17, -2.28, -2.37, -2.28, -1.74, -1.67, -2.23, -2.25, -1.73, -1.75, -0.82, 0.0, 1.75, 3.63, 3.7, 5.21, 6.01, 6.64, 6.32, 5.31, 5.31, 4.96, 4.96, 6.01, 6.63, 7.44, 7.44, 7.21, 6.64, 6.95, 6.98, 5.69, 4.8, 3.61, 2.49, 1.75, 1.75, 0.85, 0.0, 0.0, 0.85, 1.23, 2.35, 4.79, 6.44, 6.6, 5.54, 4.79, 4.07, 2.43, 2.37, 2.43, 1.55, 1.58, 1.69, 1.47, 1.68, 1.75, 0.85, 0.76, -1.98, -1.79, 0.0, 2.8, 4.57, 5.29, 4.92, 4.4, 3.93, 3.93, -5.09, -5.09, -5.34, -5.34, -5.34, -5.08, -5.08, -5.32, -5.32, -5.06, -5.29, -5.7, -5.69, -5.69, -5.67, -5.67, -5.23, -5.23, -5.8, -5.67, -6.28, -5.77, -6.46, -6.4, -5.73, -4.87, -4.0, -2.87, -2.87, -2.35, -2.25, -1.73, -1.73, -1.73, -2.3, -2.83, -2.97, -2.8, -1.73, -0.55, 0.58, 1.71, 2.39, 3.49, 3.35, 4.88, 4.0, 3.8, 4.0, 4.0, 4.96, 6.01, 7.44, 7.44, 7.2, 6.73, 7.59, 6.58, 5.9, 4.54, 2.49, 1.22, 1.22, 0.0, 0.0, 0.0, 0.89, 2.69, 5.06, 5.51, 6.6, 7.11, 6.48, 4.89, 3.21, 0.0, -1.6, -3.13, -2.43, -0.79, 0.0, 0.0, 0.82, 0.82, 0.82, 1.54, 1.54, 1.43, 0.0, -0.81, 0.0, 4.38, 6.71, 6.71, 5.29, 4.4, 3.48, 3.48, -5.09, -5.09, -5.09, -5.34, -5.34, -5.08, -5.08, -5.32, -5.32, -5.06, -5.29, -5.29, -5.69, -5.69, -5.67, -5.89, -5.2, -5.2, -5.64, -6.52, -5.55, -5.17, -5.86, -6.29, -5.8, -5.11, -3.56, -2.93, -2.3, -1.69, -1.15, -1.11, -1.18, -1.12, -1.14, -1.69, -2.21, -2.33, -2.3, -1.73, -0.58, 0.0, 1.1, 1.65, 2.21, 2.28, 2.46, 2.46, 2.46, 3.52, 3.8, 6.01, 7.07, 7.44, 7.81, 6.73, 7.27, 6.79, 6.16, 3.61, 2.39, 1.22, 0.0, 0.0, 0.0, 0.84, 4.03, 7.06, 8.31, 8.12, 8.05, 8.86, 7.38, 4.07, 0.0, -3.96, -7.88, -9.09, -7.82, -5.62, -3.25, -0.8, 0.0, 0.0, 0.82, 0.85, 0.85, 1.47, 1.43, 0.0, 1.73, 6.18, 8.56, 7.28, 5.43, 3.84, 2.41, 2.41, -5.09, -5.09, -5.09, -5.09, -5.34, -5.34, -5.08, -5.08, -5.32, -5.32, -5.06, -5.29, -5.04, -5.69, -5.67, -5.67, -5.64, -5.64, -5.83, -5.77, -4.62, -3.99, -4.02, -5.2, -5.17, -5.32, -4.1, -2.87, -2.34, -1.16, -0.59, -0.56, 0.0, 0.0, 0.0, -0.59, -0.56, -1.12, -1.67, -1.12, -1.11, 0.0, 0.0, 0.56, 1.14, 1.71, 2.28, 2.46, 2.46, 2.33, 3.8, 6.63, 7.44, 7.44, 7.44, 7.56, 7.27, 8.22, 6.97, 4.6, 2.44, 0.89, 0.0, 0.0, 1.84, 4.42, 7.82, 8.95, 9.05, 9.3, 9.08, 10.17, 8.62, 4.06, -4.8, -8.09, -10.01, -11.64, -11.58, -9.78, -6.4, -2.99, -0.82, 0.0, 0.0, 0.81, 1.75, 2.35, 2.83, 1.54, 4.6, 7.95, 8.88, 7.69, 6.06, 3.9, 2.99, 2.99, -5.09, -5.09, -5.09, -5.09, -5.34, -5.34, -5.08, -5.08, -5.32, -5.32, -5.06, -5.29, -5.04, -5.26, -5.26, -5.23, -5.89, -5.86, -5.83, -5.32, -4.58, -3.93, -3.44, -3.47, -3.99, -4.13, -3.96, -3.44, -2.9, -1.77, -1.14, -0.58, -0.56, 0.0, 0.0, 0.0, 0.0, 0.0, 0.0, 0.0, 0.0, 0.0, 0.0, 0.56, 1.12, 1.69, 1.28, 1.26, 1.26, 3.8, 5.31, 6.32, 6.32, 6.32, 6.32, 7.21, 7.35, 8.64, 8.24, 5.64, 3.45, 2.54, 1.73, 2.64, 5.37, 7.82, 8.95, 8.4, 8.43, 7.41, 6.64, 5.21, 3.22, 2.19, 0.0, -3.07, -6.06, -8.27, -10.15, -10.75, -8.66, -5.6, -2.41, -0.82, 0.0, 1.75, 2.57, 4.2, 5.06, 5.9, 6.28, 7.96, 7.96, 6.64, 5.49, 4.46, 3.79, 3.79, -5.09, -5.09, -5.09, -5.09, -5.09, -5.34, -5.08, -5.08, -5.08, -5.32, -5.06, -5.29, -5.29, -5.26, -5.26, -5.23, -5.23, -5.2, -5.17, -5.14, -4.62, -4.07, -3.53, -3.41, -2.87, -2.87, -3.0, -2.9, -2.34, -2.34, -1.71, -1.14, -0.58, -0.58, 0.0, 0.0, 0.0, 0.0, 0.0, 0.0, 0.0, 0.57, 0.57, 1.15, 1.16, 1.75, 1.18, 2.39, 2.58, 4.88, 5.72, 6.01, 5.72, 5.59, 6.01, 6.32, 6.39, 7.35, 8.22, 7.56, 5.76, 4.26, 4.42, 6.11, 7.2, 8.4, 8.95, 9.1, 8.06, 7.06, 4.42, -1.17, 1.57, 4.79, 6.56, 4.72, 2.28, 0.0, -4.88, -7.22, -8.49, -7.02, -4.4, -2.21, 0.0, 2.35, 4.2, 4.83, 6.04, 6.7, 7.59, 7.27, 6.88, 5.86, 5.13, 5.13, 5.13, 5.13, -5.36, -5.36, -5.09, -5.09, -5.09, -5.09, -5.08, -5.08, -5.08, -5.32, -5.06, -5.06, -5.29, -5.26, -5.26, -5.23, -5.23, -5.2, -5.4, -5.17, -4.65, -4.62, -4.1, -4.07, -3.53, -2.97, -2.4, -2.32, -1.75, -1.69, -1.77, -1.14, -1.14, -0.57, -0.58, 0.0, 0.0, 0.0, 0.0, 0.0, 0.0, 0.56, 0.56, 1.14, 1.15, 1.15, 1.15, 1.71, 2.28, 2.8, 3.32, 3.61, 3.52, 4.71, 5.31, 6.01, 6.32, 5.24, 6.64, 7.59, 7.56, 6.04, 5.89, 6.32, 7.44, 8.8, 9.36, 9.05, 8.38, 4.12, 0.89, 0.0, 1.18, 5.69, 7.33, 7.45, 6.52, 3.98, 0.0, -3.11, -5.95, -6.62, -5.54, -3.02, 0.0, 2.57, 4.34, 4.96, 5.76, 6.58, 7.48, 7.22, 6.51, 5.64, 5.38, 5.86, 6.58, 6.58, -5.1, -5.1, -5.09, -5.09, -5.09, -5.09, -5.09, -5.08, -5.08, -5.32, -5.06, -5.06, -5.29, -5.04, -5.26, -5.02, -5.23, -5.0, -5.2, -5.17, -4.65, -4.65, -4.46, -4.1, -4.1, -3.53, -2.97, -2.3, -2.32, -1.75, -1.69, -1.19, -1.14, -0.57, -0.57, -0.58, 0.0, 0.0, 0.0, 0.0, 0.0, 0.0, 0.56, 0.6, 0.57, 1.15, 1.15, 1.15, 1.63, 1.73, 1.75, 1.69, 2.39, 4.0, 4.71, 4.71, 4.71, 3.8, 4.14, 4.96, 6.5, 6.4, 5.64, 5.89, 7.15, 8.8, 9.03, 9.05, 6.53, 4.2, 1.75, 0.0, 0.81, 3.24, 6.42, 7.95, 7.22, 4.4, 0.0, -2.51, -5.14, -5.95, -4.31, -1.52, 1.49, 3.4, 4.68, 5.59, 6.64, 6.58, 7.48, 7.15, 6.71, 5.95, 6.51, 6.7, 7.22, 7.22, -4.71, -4.71, -4.45, -5.09, -5.09, -5.09, -5.09, -5.34, -5.08, -5.08, -5.06, -5.06, -5.29, -5.04, -5.26, -5.26, -5.23, -5.23, -5.2, -4.72, -4.68, -4.48, -4.13, -4.13, -3.96, -3.56, -3.41, -2.87, -2.32, -2.32, -1.75, -1.77, -1.77, -1.14, -1.14, -0.57, -0.58, -0.58, 0.0, 0.0, 0.0, 0.0, 0.0, 0.56, 0.57, 0.57, 0.57, 0.58, 0.58, 1.16, 1.11, 1.12, 1.14, 1.09, 2.54, 2.67, 2.69, 2.69, 3.77, 4.68, 5.1, 5.14, 5.64, 6.18, 8.37, 8.4, 8.82, 6.53, 5.06, 4.07, 1.62, 0.0, 0.0, 1.57, 4.07, 5.72, 4.79, 1.4, -1.54, -4.2, -5.36, -4.42, -1.47, 0.81, 2.4, 4.01, 4.95, 5.89, 6.53, 6.83, 7.22, 7.36, 7.51, 7.24, 7.36, 7.36, 7.36, 7.36, -4.71, -4.71, -4.71, -4.45, -4.69, -4.69, -4.69, -4.69, -4.66, -5.08, -5.06, -5.06, -5.06, -5.29, -5.04, -5.26, -5.02, -5.23, -4.54, -4.72, -4.51, -4.68, -3.99, -4.13, -4.13, -3.6, -3.44, -2.93, -2.8, -2.26, -2.26, -2.26, -1.71, -1.71, -1.14, -1.16, -1.16, -0.58, -0.58, 0.0, 0.0, 0.0, 0.0, 0.0, 0.0, 0.0, 0.0, 0.0, 0.0, 0.0, 0.0, 0.0, 0.0, 0.0, 0.56, 0.84, 1.32, 2.54, 4.42, 4.26, 3.63, 3.51, 4.25, 6.04, 7.76, 9.1, 6.83, 5.06, 3.21, 1.62, 0.82, 0.0, -0.83, -0.83, 0.0, 0.0, -0.79, -0.82, -2.49, -4.29, -4.98, -0.89, 0.89, 3.58, 3.22, 4.65, 5.21, 6.42, 6.57, 6.84, 7.24, 7.38, 7.79, 7.93, 7.93, 7.19, 6.44, 6.44, -4.71, -4.71, -4.45, -4.45, -4.69, -4.69, -4.69, -4.69, -4.66, -4.66, -4.88, -4.63, -4.63, -5.29, -5.04, -5.26, -4.57, -4.57, -4.76, -4.54, -4.72, -4.51, -4.17, -3.99, -3.47, -3.47, -3.47, -2.93, -2.93, -2.37, -2.37, -2.37, -1.79, -1.72, -1.72, -1.16, -1.16, -1.11, -0.56, -0.59, 0.0, 0.0, 0.0, 0.0, 0.0, 0.58, 0.0, -0.58, -0.59, 0.0, 0.0, -0.56, 0.0, 0.0, 0.0, 0.57, 1.32, 2.54, 3.4, 3.45, 3.32, 2.47, 3.49, 6.18, 7.35, 7.27, 7.48, 5.9, 2.57, 0.85, 0.0, 0.0, -0.8, -2.45, -4.76, -6.42, -5.61, -2.37, -0.83, -0.85, -0.96, 0.54, 1.6, 2.61, 4.5, 5.09, 5.77, 6.56, 6.43, 6.65, 7.25, 6.52, 6.48, 7.03, 7.25, 6.48, 6.36, 6.36, -4.71, -4.71, -4.45, -4.45, -4.45, -4.69, -4.69, -4.69, -4.44, -4.66, -4.66, -4.63, -4.63, -4.84, -4.6, -4.6, -4.8, -4.57, -4.76, -4.54, -4.54, -4.72, -4.05, -4.02, -3.5, -3.5, -3.5, -2.82, -2.82, -2.28, -2.28, -2.28, -2.28, -1.72, -1.72, -1.16, -1.11, -1.11, -0.59, -0.59, -0.56, 0.0, 0.0, 0.0, 0.0, 0.0, 0.0, 0.0, 0.0, 0.0, 0.0, 0.0, 0.0, 0.0, 0.56, 1.1, 1.73, 2.26, 2.44, 2.69, 2.57, 2.47, 4.0, 5.89, 6.64, 6.53, 7.27, 7.56, 5.21, 0.8, 0.0, 0.0, 0.8, 0.0, -3.13, -6.37, -6.37, -3.32, 0.0, 0.82, 0.82, 1.04, 1.65, 2.8, 4.38, 6.6, 6.32, 6.6, 5.72, 5.99, 5.81, 5.62, 5.18, 6.6, 5.81, 5.81, 5.11, 5.11, -4.71, -4.71, -4.71, -4.45, -4.45, -4.69, -4.69, -4.69, -4.69, -4.66, -4.66, -4.66, -4.63, -4.63, -4.6, -4.6, -4.8, -4.57, -4.57, -4.76, -4.54, -4.05, -4.05, -4.05, -4.05, -3.37, -3.37, -2.96, -2.96, -2.82, -2.82, -2.28, -2.28, -2.28, -1.72, -1.66, -1.17, -1.17, -1.17, -0.56, -0.56, -0.56, -0.57, 0.0, 0.0, 0.0, 0.0, 0.59, 0.56, 1.11, 1.18, 1.75, 1.75, 1.71, 2.37, 2.21, 1.81, 1.71, 1.16, 1.67, 1.67, 2.57, 4.34, 4.96, 4.34, 4.5, 5.1, 6.3, 5.98, 2.58, 1.65, 3.32, 4.17, 4.07, 0.79, -3.28, -4.79, -3.87, -1.59, 0.0, 0.7, 1.46, 2.3, 3.29, 4.62, 5.11, 5.11, 6.6, 5.64, 5.1, 4.95, 4.31, 3.64, 2.85, 4.38, 4.38, 4.24, 4.24, -4.71, -4.71, -4.71, -4.45, -4.45, -4.45, -4.69, -4.69, -4.69, -4.44, -4.66, -4.66, -4.42, -4.63, -4.6, -4.6, -4.6, -4.8, -4.57, -4.57, -4.08, -4.08, -3.89, -4.05, -4.05, -3.53, -3.53, -2.87, -3.23, -2.33, -2.84, -2.84, -2.3, -2.3, -2.3, -1.74, -1.74, -1.74, -1.12, -1.12, -1.18, -1.18, -0.57, -0.57, -0.57, -0.57, 0.0, 0.57, 1.14, 1.15, 1.15, 1.73, 1.73, 1.73, 1.11, 1.75, 1.67, 1.14, 1.16, 0.58, 1.67, 2.44, 3.45, 2.99, 3.45, 3.27, 2.67, 2.54, 2.58, 2.6, 3.49, 5.06, 5.2, 4.6, 3.23, 0.0, -2.39, -2.39, -2.47, -0.72, 0.73, 2.18, 3.59, 3.36, 4.03, 4.03, 4.58, 4.46, 4.71, 4.24, 3.64, 2.16, 2.09, 1.48, 2.91, 2.81, 2.87, 2.87, -4.71, -4.71, -4.71, -4.45, -4.45, -4.45, -4.69, -4.69, -4.69, -4.44, -4.66, -4.66, -4.66, -4.63, -4.63, -4.6, -4.6, -4.6, -4.6, -3.91, -4.08, -4.08, -4.08, -3.89, -3.89, -3.39, -3.39, -3.39, -2.87, -3.11, -2.35, -2.23, -2.33, -2.33, -2.33, -2.33, -1.76, -1.76, -1.76, -1.69, -1.69, -1.14, -1.14, -1.14, -1.14, -1.14, -0.57, 0.0, 0.0, 0.0, 0.0, 0.55, 0.59, 0.56, 0.56, 0.0, 0.0, 0.57, 0.58, 0.55, 1.18, 1.65, 2.46, 2.4, 2.54, 2.54, 2.67, 1.84, 1.26, 2.39, 4.25, 4.25, 2.49, 0.79, 1.64, 2.48, 0.8, 0.0, 0.0, 0.0, 1.43, 2.18, 2.92, 3.63, 2.87, 2.92, 2.87, 3.32, 3.22, 2.43, 1.53, 0.72, 0.72, 0.0, 0.0, 1.55, 1.5, 1.5, -4.71, -4.71, -4.45, -4.45, -4.45, -4.45, -4.69, -4.69, -4.69, -4.44, -4.44, -4.66, -4.66, -4.42, -4.63, -4.4, -4.4, -4.12, -4.12, -4.12, -3.91, -3.91, -4.08, -4.08, -3.57, -3.57, -3.39, -3.39, -3.39, -2.87, -2.33, -1.76, -1.76, -1.76, -1.69, -1.69, -1.69, -1.69, -1.69, -1.69, -1.79, -1.79, -1.71, -1.71, -1.71, -1.71, -1.15, -1.15, -0.58, -0.58, -0.55, 0.0, 0.0, 0.0, 0.0, 0.0, 0.0, 0.0, 0.58, 0.55, 1.2, 2.54, 2.54, 3.8, 3.4, 2.67, 2.67, 2.67, 2.69, 2.58, 4.07, 3.53, 2.52, 0.0, 0.0, 2.48, 4.95, 4.74, 3.67, 2.2, 0.73, 0.7, 0.72, 0.74, 1.41, 1.11, 1.69, 1.1, 1.51, 0.78, 0.0, 0.0, 0.0, 0.0, 0.0, 0.0, 0.0, 0.0, -4.71, -4.71, -4.45, -4.45, -4.45, -4.45, -4.45, -4.69, -4.69, -4.44, -4.44, -4.66, -4.66, -4.42, -4.42, -4.16, -4.16, -3.94, -4.12, -4.12, -4.12, -3.91, -3.91, -3.42, -3.57, -3.57, -3.57, -3.57, -3.57, -2.87, -2.33, -2.33, -1.76, -1.76, -1.18, -1.14, -1.14, -1.14, -1.14, -1.14, -1.14, -1.15, -1.15, -1.15, -1.15, -1.71, -1.71, -1.71, -1.15, -1.1, -1.16, -0.59, -0.56, -0.59, 0.0, 0.0, 0.0, 0.0, 0.0, 0.59, 0.57, 2.33, 2.54, 3.8, 2.69, 2.69, 2.67, 2.54, 2.69, 2.57, 2.97, 3.53, 2.45, 0.81, 0.0, 2.44, 5.61, 7.31, 5.66, 3.23, 0.0, -0.73, -0.73, 0.0, 0.0, 0.0, 0.0, 0.0, 0.0, 0.0, -0.76, -0.75, -0.8, -0.72, -0.72, -0.72, 0.0, 0.0, -4.71, -4.71, -4.45, -4.45, -4.45, -4.45, -4.45, -4.69, -4.69, -4.69, -4.44, -4.44, -4.66, -4.66, -4.66, -4.42, -4.16, -3.94, -3.94, -3.94, -4.12, -4.12, -3.91, -3.42, -3.42, -3.42, -3.42, -3.42, -3.42, -2.9, -2.9, -2.75, -2.23, -1.69, -1.69, -1.14, -1.14, -1.14, -0.57, -0.57, -0.57, -0.57, -0.57, -0.55, -0.58, -1.15, -1.15, -1.15, -1.1, -1.16, -1.16, -1.11, -1.18, -1.18, -0.56, -0.56, -0.56, 0.0, 0.0, 0.0, 0.56, 1.12, 1.2, 1.65, 1.75, 1.26, 1.75, 1.67, 1.67, 1.67, 2.49, 2.59, 3.53, 2.43, 1.65, 0.81, 3.22, 4.69, 4.05, 2.97, 0.74, 0.0, 0.0, 0.0, 0.0, 0.0, 0.0, 0.0, -0.76, -0.78, -0.75, -0.75, -0.8, -0.8, -0.72, -0.72, 0.0, 0.0, -4.71, -4.71, -4.45, -4.45, -4.45, -4.45, -4.45, -4.69, -4.69, -4.69, -4.44, -4.44, -4.44, -4.66, -4.66, -3.97, -4.16, -4.16, -3.94, -3.94, -3.94, -3.94, -3.61, -3.61, -3.42, -3.42, -3.42, -3.42, -2.9, -2.9, -2.9, -2.9, -2.9, -2.35, -2.35, -1.69, -1.69, -1.14, -1.14, -0.57, -0.57, -0.57, 0.0, 0.0, 0.0, -0.58, -1.15, -1.15, -1.1, -1.16, -1.73, -1.75, -1.75, -1.12, -1.12, -1.2, -0.57, -0.57, 0.0, 0.0, 0.0, 0.0, 0.0, 0.84, 0.89, 1.16, 0.89, 0.85, 0.85, 0.85, 0.89, 2.47, 3.6, 4.73, 3.09, 0.83, 0.0, 0.0, 0.0, 0.0, 1.42, 1.45, 0.7, 0.0, 0.0, 0.0, -0.7, -0.76, -0.74, -0.78, -0.78, -0.75, -0.75, -0.8, -0.8, 0.0, 0.0, -0.72, -4.71, -4.71, -4.71, -4.45, -4.45, -4.45, -4.45, -4.45, -4.69, -4.69, -4.44, -4.0, -4.0, -4.0, -4.2, -4.2, -3.97, -3.97, -4.16, -4.16, -3.94, -3.94, -3.45, -3.45, -3.45, -3.42, -3.42, -3.42, -2.9, -2.77, -2.77, -2.77, -2.77, -2.25, -2.25, -2.25, -1.71, -1.79, -1.79, -1.14, -1.14, -0.57, -0.58, 0.0, 0.0, -0.58, -1.15, -1.15, -1.1, -1.16, -1.11, -1.75, -1.67, -1.67, -1.78, -1.69, -1.14, -1.16, -0.55, 0.0, 0.0, 0.0, 0.0, 0.79, 0.89, 0.0, 0.0, 0.0, 0.85, 0.85, 0.8, 2.58, 2.52, 4.16, 4.82, 3.96, 0.8, -1.58, -2.18, -1.44, 0.0, 0.0, 0.0, 0.0, 0.0, 0.0, 0.0, 0.0, 0.0, 0.0, 0.0, 0.0, 0.0, 0.0, 0.0, 0.0, 0.0, 0.0, -4.71, -4.71, -4.71, -4.45, -4.45, -4.45, -4.45, -4.45, -4.69, -4.69, -4.24, -4.0, -4.0, -4.0, -4.2, -4.2, -4.2, -3.97, -3.97, -4.16, -4.16, -3.94, -3.45, -3.45, -3.45, -3.45, -3.45, -3.45, -2.77, -2.93, -2.93, -2.93, -2.93, -2.93, -2.39, -2.39, -2.25, -1.71, -1.71, -1.71, -1.71, -1.15, -1.15, -1.15, -0.83, -0.58, -1.15, -1.16, -1.16, -1.11, -1.11, -1.18, -1.67, -1.67, -1.78, -1.69, -1.71, -1.18, -1.1, -0.56, -0.61, -0.57, 0.0, 0.0, 0.0, 0.0, 0.0, 0.0, 0.85, 0.85, 1.67, 1.67, 1.33, 3.6, 6.93, 8.07, 5.69, 1.61, -1.64, -2.23, -2.16, -1.42, 0.0, 0.0, 0.0, 0.7, 0.72, 0.76, 0.76, 0.79, 0.79, 0.74, 0.74, 0.79, 0.81, 0.0, 0.0, 0.0, -4.71, -4.71, -4.71, -4.71, -4.45, -4.45, -4.45, -4.45, -4.45, -4.69, -4.24, -4.0, -4.0, -4.0, -4.0, -4.2, -4.2, -3.97, -3.97, -3.97, -3.97, -4.16, -3.45, -3.45, -3.45, -3.45, -3.45, -3.45, -2.93, -2.93, -2.93, -2.93, -2.93, -2.93, -2.28, -2.28, -2.28, -2.39, -2.25, -1.71, -1.71, -1.71, -1.71, -1.71, -1.79, -0.83, -0.55, -0.59, -0.56, -0.56, -0.56, -0.59, -1.12, -1.12, -1.2, -1.14, -1.16, -1.1, -1.2, -1.12, -0.57, -0.58, 0.0, 0.0, 0.0, 0.0, 0.0, 0.0, 0.0, 0.8, 1.67, 0.85, 1.22, 1.28, 4.48, 7.84, 9.0, 7.33, 3.9, 0.8, 0.0, 0.73, 1.43, 2.16, 2.16, 2.85, 2.95, 2.23, 2.23, 1.5, 0.75, 0.79, 0.0, 0.0, 0.0, 0.0, 0.0, 0.0, -4.71, -4.71, -4.71, -4.71, -4.71, -4.45, -4.45, -4.45, -4.45, -4.45, -4.69, -4.69, -4.0, -4.0, -4.0, -4.0, -4.2, -4.2, -3.97, -3.97, -3.97, -3.97, -3.49, -3.49, -3.45, -3.45, -3.45, -3.45, -3.45, -2.93, -2.93, -2.93, -2.8, -2.8, -2.28, -2.28, -2.28, -2.28, -2.28, -2.39, -1.81, -1.71, -1.71, -1.71, -1.79, -1.14, -0.57, -0.58, -0.55, 0.0, 0.0, 0.0, 0.0, 0.0, 0.0, 0.0, 0.0, -0.58, -0.59, -0.56, -1.12, -0.57, -0.58, 0.0, 0.0, 0.0, 0.0, 0.0, 0.0, 0.89, 0.85, 0.85, 0.0, 0.0, 0.0, 2.45, 5.61, 9.0, 9.67, 8.07, 6.7, 5.64, 5.09, 4.35, 4.23, 3.16, 3.07, 2.25, 1.51, 0.74, 0.0, 0.0, 0.0, -0.79, -0.83, -0.77, -0.77, -0.77, -4.71, -4.71, -4.71, -4.71, -4.71, -4.71, -4.45, -4.45, -4.45, -4.45, -4.69, -4.69, -4.69, -4.0, -4.0, -4.0, -4.2, -4.2, -4.2, -3.97, -3.97, -3.97, -3.49, -3.49, -3.49, -3.3, -3.3, -3.45, -3.45, -2.93, -2.8, -2.8, -2.8, -2.8, -2.8, -2.8, -2.28, -2.28, -2.28, -2.28, -2.28, -2.28, -2.39, -1.71, -1.71, -1.79, -1.14, -0.57, -0.58, -0.58, -0.58, 0.0, 0.0, 0.0, 0.0, 0.0, 0.0, 0.0, 0.0, -0.55, -0.59, -0.56, -0.57, 0.0, 0.0, 0.0, 1.2, 1.2, 1.65, 1.75, 0.85, 0.0, 0.0, 0.0, 0.0, 0.0, 2.41, 5.6, 9.74, 11.36, 11.39, 10.27, 8.9, 6.51, 5.01, 3.61, 2.28, 1.56, 0.0, 0.0, -0.75, -0.77, -1.48, -1.55, -1.6, -1.58, -1.58, -1.58, -4.71, -4.71, -4.71, -4.71, -4.71, -4.71, -4.71, -4.45, -4.45, -4.45, -4.69, -4.69, -4.69, -4.0, -4.0, -4.0, -4.0, -4.0, -4.2, -3.97, -3.97, -3.49, -3.49, -3.49, -3.49, -3.49, -3.3, -3.3, -3.3, -2.8, -2.8, -2.8, -2.8, -2.8, -2.8, -2.8, -2.8, -2.28, -2.28, -2.28, -2.28, -2.28, -2.28, -2.39, -2.25, -1.71, -1.71, -1.15, -1.15, -1.15, -1.15, -1.1, -0.59, -0.59, -0.56, 0.0, 0.0, 0.0, 0.0, -0.54, -0.58, -0.55, -0.59, -0.56, 0.0, 0.0, 1.2, 0.89, 1.67, 1.75, 0.0, 0.0, 0.0, 0.0, 0.0, 0.0, 1.6, 3.9, 6.46, 8.94, 11.49, 11.29, 9.79, 7.45, 5.72, 4.4, 2.83, 1.57, 0.0, -0.75, -1.1, -2.31, -2.39, -2.45, -2.44, -1.7, -1.7, -1.7, -4.71, -4.71, -4.71, -4.71, -4.71, -4.71, -4.71, -4.71, -4.45, -4.45, -4.45, -4.69, -4.69, -4.69, -4.0, -4.0, -4.0, -4.0, -4.0, -4.2, -3.97, -3.49, -3.49, -3.49, -3.49, -3.49, -3.49, -3.3, -2.8, -2.8, -2.97, -2.97, -2.97, -2.97, -2.97, -2.97, -2.97, -2.97, -2.8, -2.28, -2.28, -2.28, -2.28, -2.28, -2.28, -2.39, -1.81, -1.71, -1.71, -1.71, -1.63, -1.73, -1.16, -1.11, -1.18, -0.56, -0.57, -0.57, -0.57, -0.54, -0.58, -0.58, -0.55, -1.18, -0.56, 0.0, 0.0, 0.0, 0.0, 0.0, 0.0, 0.0, 0.0, 0.0, 0.0, 0.0, 0.8, 2.49, 4.75, 7.22, 9.0, 9.87, 8.51, 7.45, 5.86, 4.34, 2.16, 0.71, 0.0, -1.08, -3.41, -3.32, -3.32, -3.19, -3.29, -2.41, -2.41, -2.41, -4.71, -4.71, -4.71, -4.71, -4.71, -4.71, -4.71, -4.71, -4.71, -4.45, -4.45, -4.45, -4.69, -4.69, -4.0, -4.0, -4.0, -4.0, -4.0, -4.2, -3.97, -3.97, -3.49, -3.49, -3.49, -3.49, -3.49, -3.49, -3.49, -2.97, -2.97, -2.97, -2.97, -2.97, -2.97, -2.97, -2.97, -2.97, -2.97, -2.97, -2.8, -2.28, -2.28, -2.28, -2.28, -2.28, -2.28, -2.28, -1.73, -1.73, -1.73, -1.73, -1.73, -1.75, -1.67, -1.2, -1.14, -1.14, -1.16, -1.16, -1.16, -1.09, -1.18, -1.18, -1.1, -1.26, -1.2, -1.2, -1.26, -0.8, -0.85, -0.85, 0.0, 0.0, 0.0, 0.82, 0.86, 1.61, 3.95, 5.67, 7.34, 8.25, 8.34, 8.26, 6.58, 4.28, 1.45, 0.0, -2.39, -4.0, -4.81, -4.75, -4.17, -4.01, -3.85, -3.02, -3.02, -3.02, -5.1, -5.1, -5.1, -5.1, -5.1, -5.1, -4.71, -4.71, -4.71, -4.71, -4.45, -4.45, -4.69, -4.69, -4.24, -4.0, -4.0, -4.0, -4.0, -4.0, -4.0, -3.97, -3.97, -3.49, -3.49, -3.49, -3.49, -3.49, -3.49, -2.97, -2.97, -2.97, -2.97, -2.97, -2.97, -2.97, -2.97, -2.83, -2.83, -2.97, -2.97, -2.8, -2.8, -2.8, -2.8, -2.28, -2.28, -2.28, -2.28, -2.28, -2.28, -1.73, -1.73, -1.75, -1.67, -1.78, -1.69, -1.69, -1.71, -1.71, -1.71, -1.73, -1.73, -1.63, -1.65, -1.2, -1.2, -1.2, -1.26, -0.8, 0.0, 0.0, 0.0, 0.0, 0.0, 0.0, 0.79, 1.64, 3.34, 4.76, 5.56, 7.28, 10.0, 10.49, 8.99, 5.94, 2.11, -0.73, -4.94, -6.36, -7.01, -6.56, -5.51, -5.0, -4.8, -3.95, -3.95, -3.95, -5.1, -5.1, -5.1, -5.1, -5.1, -4.71, -4.71, -4.71, -4.71, -4.71, -4.71, -4.45, -4.45, -4.69, -4.69, -4.0, -4.0, -4.0, -4.0, -4.0, -4.0, -4.0, -4.0, -3.49, -3.49, -3.49, -3.49, -3.49, -3.49, -3.49, -3.49, -3.49, -3.49, -3.49, -3.49, -3.49, -2.83, -2.83, -2.83, -2.83, -2.83, -2.97, -2.97, -2.8, -2.8, -2.8, -2.8, -2.8, -2.8, -2.28, -2.28, -2.28, -2.42, -2.3, -2.19, -2.33, -2.33, -2.21, -2.37, -2.23, -2.4, -2.26, -2.26, -2.29, -2.29, -2.54, -1.75, -0.89, -0.8, -0.85, -0.89, -0.81, 0.0, 0.0, 0.0, 0.0, 0.82, 1.69, 2.44, 4.1, 4.76, 6.24, 9.05, 11.16, 10.17, 7.14, 0.0, -1.47, -3.51, -6.14, -7.59, -8.22, -7.36, -6.57, -5.52, -4.71, -4.71, -4.71, -5.1, -4.46, -4.71, -4.71, -4.71, -4.71, -4.71, -4.71, -4.71, -4.71, -4.71, -4.45, -4.45, -4.69, -4.69, -4.69, -4.0, -4.0, -4.0, -4.0, -4.0, -4.0, -4.0, -4.0, -3.52, -3.32, -3.32, -3.32, -3.49, -3.49, -3.49, -3.49, -3.49, -3.49, -3.32, -3.32, -2.83, -2.83, -3.32, -3.32, -3.32, -3.32, -2.97, -2.97, -2.97, -2.97, -2.97, -2.97, -2.97, -2.97, -2.97, -2.83, -2.83, -2.3, -2.3, -2.33, -2.33, -2.21, -2.37, -2.37, -2.23, -2.4, -2.26, -2.29, -2.77, -2.54, -1.65, -0.89, -0.8, -0.85, -0.85, -1.75, -1.75, -0.85, -0.85, 0.0, 0.0, 0.82, 1.69, 3.19, 4.1, 4.87, 6.35, 7.34, 7.22, 2.17, 0.0, 0.0, 0.0, -0.82, -4.65, -7.32, -7.96, -7.27, -6.53, -5.38, -5.38, -5.38, -4.46, -4.46, -4.71, -4.71, -4.71, -4.71, -4.71, -4.71, -4.71, -4.71, -4.71, -4.45, -4.45, -4.69, -4.69, -4.69, -4.69, -4.44, -4.0, -4.0, -4.0, -4.0, -4.0, -4.0, -4.0, -3.52, -3.52, -3.32, -3.32, -3.32, -3.32, -3.32, -3.32, -3.32, -3.32, -3.32, -3.32, -3.32, -3.32, -3.32, -3.32, -3.32, -3.32, -3.49, -3.49, -2.97, -2.97, -2.97, -2.97, -2.97, -2.97, -2.83, -2.83, -2.83, -3.01, -2.86, -2.86, -2.86, -2.86, -2.89, -2.89, -2.92, -2.92, -2.75, -2.77, -2.14, -1.75, -1.75, -1.75, -0.89, -0.89, -0.85, -1.75, -2.57, -1.68, -0.85, 0.0, 0.0, 0.82, 1.63, 2.44, 3.23, 4.13, 4.01, 0.74, 0.0, 0.0, 0.7, 1.5, 1.47, 0.0, -3.72, -6.44, -6.79, -5.69, -5.24, -5.24, -5.24, -4.46, -4.46, -4.71, -4.71, -4.71, -4.71, -4.45, -4.45, -4.45, -4.45, -4.45, -4.45, -4.45, -4.69, -4.69, -4.69, -4.69, -4.69, -4.44, -4.0, -4.0, -4.0, -4.0, -4.0, -4.0, -4.0, -3.52, -3.52, -3.52, -3.52, -3.32, -3.32, -3.32, -3.32, -3.32, -3.32, -3.32, -3.32, -3.32, -3.32, -3.32, -3.32, -3.32, -3.32, -3.32, -3.49, -3.49, -3.49, -3.49, -2.97, -2.97, -2.83, -3.32, -3.52, -2.86, -2.86, -2.86, -2.86, -2.86, -2.89, -2.89, -2.73, -2.92, -2.92, -2.96, -2.8, -2.54, -1.75, -1.75, -0.89, -0.89, -0.8, -0.85, -1.75, -2.57, -2.57, -0.81, 0.0, 0.0, 0.0, 0.82, 1.64, 2.39, 1.61, 0.0, 0.0, 0.0, 0.0, 0.0, 0.0, 0.0, -0.78, -2.68, -3.48, -2.76, -1.99, -1.99, -1.99, -4.71, -4.71, -4.71, -4.71, -4.71, -4.71, -4.45, -4.45, -4.45, -4.45, -4.45, -4.45, -4.45, -4.69, -4.69, -4.69, -4.69, -4.69, -4.69, -4.69, -4.24, -4.0, -4.0, -4.0, -4.0, -4.0, -4.0, -3.52, -3.52, -3.52, -3.52, -3.52, -3.32, -3.32, -3.32, -3.32, -3.52, -3.52, -3.32, -3.32, -3.32, -3.32, -3.32, -3.32, -3.32, -3.32, -3.32, -3.49, -3.49, -3.49, -3.49, -3.49, -3.52, -3.52, -3.35, -3.35, -3.35, -3.35, -2.86, -3.05, -2.89, -2.89, -3.09, -2.92, -2.75, -2.77, -2.32, -1.67, -1.67, -0.85, -0.85, -0.85, -0.85, 0.0, 0.0, -1.75, -0.85, 0.0, 0.0, 0.0, 0.0, 0.82, 2.32, 3.25, 2.93, 2.18, 0.0, -1.38, -2.93, -3.53, -2.28, -0.72, 0.0, -0.98, -1.08, 0.0, 0.0, 0.0, -4.71, -4.71, -4.71, -4.71, -4.71, -4.71, -4.45, -4.45, -4.45, -4.45, -4.45, -4.45, -4.69, -4.69, -4.69, -4.69, -4.69, -4.69, -4.69, -4.69, -4.24, -4.24, -4.24, -4.0, -4.0, -4.0, -4.0, -4.0, -3.52, -3.52, -3.52, -3.52, -3.52, -3.52, -3.52, -3.52, -3.52, -3.52, -3.52, -3.52, -3.32, -3.32, -3.32, -3.32, -3.32, -3.32, -3.32, -3.32, -3.32, -3.49, -3.49, -3.49, -3.52, -3.52, -3.56, -3.56, -3.56, -3.56, -3.56, -3.56, -3.37, -3.37, -3.6, -3.6, -3.4, -3.42, -3.42, -2.77, -2.44, -1.75, -1.75, -0.89, -0.89, 0.0, 0.0, 0.0, 0.0, 0.0, 0.0, 0.0, 0.0, 0.0, 2.41, 4.82, 5.63, 4.67, 1.6, -0.84, -4.65, -5.37, -4.74, -2.68, -2.23, -1.13, -0.98, 0.0, 0.0, 0.0, -5.1, -5.1, -5.1, -4.71, -4.71, -4.71, -4.45, -4.45, -4.45, -4.45, -4.45, -4.69, -4.69, -4.69, -4.69, -4.69, -4.24, -4.24, -4.24, -4.24, -4.24, -4.03, -4.03, -4.0, -4.0, -4.0, -4.0, -4.0, -4.0, -4.0, -3.52, -3.52, -3.52, -3.52, -3.52, -3.52, -3.52, -3.52, -3.52, -3.52, -3.52, -3.32, -3.32, -3.32, -3.32, -3.32, -3.32, -3.52, -3.52, -3.52, -3.32, -3.49, -3.32, -3.52, -3.35, -4.03, -4.03, -3.56, -3.56, -3.56, -3.56, -3.56, -4.05, -4.05, -3.83, -3.83, -3.84, -3.42, -2.75, -2.57, -1.75, -1.75, -0.89, 0.0, 0.0, 0.0, 0.0, 0.0, -0.85, 0.0, 0.0, 0.0, 1.64, 3.13, 4.94, 4.79, 2.99, 0.0, -3.58, -4.92, -4.38, -3.2, -2.6, -2.53, -1.13, 0.0, 0.0, 0.0, -5.1, -5.1, -5.1, -5.1, -5.1, -4.71, -4.71, -4.45, -4.45, -4.45, -4.69, -4.69, -4.69, -4.69, -4.69, -4.69, -4.24, -4.0, -4.24, -4.24, -4.03, -4.03, -4.03, -4.03, -4.24, -4.0, -4.0, -4.0, -4.0, -4.0, -4.0, -4.0, -3.52, -3.52, -3.52, -3.52, -3.52, -3.52, -3.52, -3.52, -3.52, -3.52, -3.32, -3.32, -3.32, -3.32, -3.32, -3.52, -4.0, -4.0, -4.0, -3.32, -3.32, -3.52, -3.52, -3.56, -4.03, -4.03, -3.81, -4.03, -4.03, -4.03, -4.03, -4.05, -4.05, -3.83, -4.08, -4.08, -4.08, -4.0, -3.32, -2.57, -2.57, -1.67, -0.85, -0.85, -1.67, -0.85, -1.67, -0.85, 0.0, 0.0, 0.82, 0.79, 2.47, 3.28, 2.12, 0.77, -0.99, -2.68, -2.0, -1.2, 0.0, 0.0, 0.0, 0.98, 0.98, 0.98, -5.1, -5.1, -5.1, -5.1, -5.1, -5.1, -5.1, -4.71, -4.45, -4.45, -4.69, -4.69, -4.69, -4.69, -4.69, -4.69, -4.69, -4.24, -4.0, -4.24, -4.24, -4.03, -4.03, -4.03, -4.03, -4.03, -4.24, -4.0, -4.0, -4.0, -4.0, -4.0, -4.0, -4.0, -4.0, -4.0, -4.0, -4.0, -4.0, -4.0, -4.0, -4.0, -4.0, -4.0, -3.78, -4.0, -4.0, -4.0, -4.0, -4.0, -4.0, -4.0, -4.0, -4.0, -3.52, -3.35, -4.03, -4.03, -4.28, -4.03, -4.03, -4.03, -4.03, -4.71, -4.46, -4.73, -4.73, -4.47, -4.47, -5.21, -4.2, -3.32, -2.44, -2.54, -1.75, -1.67, -1.67, -1.67, -2.44, -0.85, 0.0, 0.0, 0.0, 0.0, 0.0, 0.82, 0.79, 0.73, 0.0, 0.0, 1.52, 3.0, 3.69, 3.45, 3.27, 3.6, 3.6, 3.6, -5.1, -5.1, -5.1, -5.1, -5.1, -5.1, -5.1, -5.1, -5.1, -4.71, -4.45, -4.69, -4.69, -4.69, -4.69, -4.69, -4.69, -4.69, -4.24, -4.24, -4.24, -4.24, -4.24, -4.03, -4.03, -4.03, -4.03, -4.24, -4.0, -4.0, -4.0, -4.0, -4.0, -4.0, -4.0, -4.0, -4.0, -4.0, -4.0, -4.0, -4.0, -4.0, -4.0, -4.0, -4.0, -4.0, -4.0, -4.0, -4.0, -4.0, -4.0, -4.0, -4.0, -4.0, -4.0, -3.8, -4.03, -4.03, -4.03, -4.71, -4.03, -4.24, -4.0, -4.45, -4.71, -4.73, -4.73, -4.73, -5.1, -5.1, -4.03, -4.2, -3.32, -2.44, -2.44, -1.67, -0.85, -0.85, 0.0, -0.85, 0.0, 0.0, 0.0, 0.0, 0.0, 0.0, 0.0, 0.0, 0.71, 1.46, 2.99, 4.15, 4.92, 4.87, 4.87, 4.01, 4.01, 4.01, -4.71, -4.71, -5.1, -5.1, -5.1, -5.38, -5.1, -5.1, -5.1, -5.1, -4.71, -4.45, -4.69, -4.69, -4.69, -4.69, -4.69, -4.69, -4.69, -4.69, -4.24, -4.24, -4.24, -4.24, -4.03, -4.03, -4.03, -4.03, -4.03, -4.0, -4.0, -4.0, -4.0, -4.0, -4.0, -4.0, -4.0, -4.0, -4.0, -4.0, -4.0, -4.0, -4.0, -4.0, -4.0, -4.0, -4.0, -4.0, -4.0, -4.0, -4.0, -4.0, -4.0, -4.0, -4.0, -4.24, -4.24, -4.24, -4.45, -4.71, -4.71, -4.03, -4.0, -4.69, -5.1, -5.38, -5.1, -5.1, -5.1, -5.38, -5.1, -4.07, -3.49, -2.39, -1.58, -0.85, -0.89, 0.0, 0.0, -0.89, 0.0, -0.85, -0.82, -0.78, -0.78, 0.0, 0.0, 0.81, 0.71, 1.43, 2.87, 3.53, 3.73, 4.39, 3.6, 3.6, 3.6, 3.6, -4.45, -4.45, -4.71, -4.71, -5.1, -5.1, -5.38, -5.38, -5.1, -5.1, -5.1, -5.1, -4.45, -4.69, -4.69, -4.69, -4.69, -4.69, -4.69, -4.69, -4.69, -4.69, -4.24, -4.24, -4.03, -4.03, -4.03, -4.03, -4.03, -4.03, -4.0, -4.0, -4.0, -4.0, -4.0, -4.0, -4.0, -4.0, -4.0, -4.0, -4.0, -4.0, -4.0, -4.0, -4.0, -4.0, -4.0, -4.0, -4.0, -4.0, -4.0, -4.0, -4.0, -4.0, -4.0, -4.24, -4.69, -4.69, -4.45, -4.71, -4.71, -4.71, -4.69, -4.44, -5.09, -5.1, -5.71, -5.71, -5.71, -5.71, -5.1, -4.69, -3.56, -2.49, -1.67, -0.85, -0.89, -0.89, -0.85, -1.75, -1.6, -1.62, -1.63, -1.6, -0.78, 0.0, 0.82, 1.58, 1.54, 1.66, 2.45, 3.23, 2.93, 2.87, 2.93, 3.11, 3.11, 3.11, -4.45, -4.45, -4.71, -4.71, -5.1, -5.1, -5.38, -5.38, -5.1, -5.1, -5.1, -5.1, -4.45, -4.69, -4.69, -4.69, -4.69, -4.69, -4.69, -4.69, -4.69, -4.69, -4.24, -4.24, -4.03, -4.03, -4.03, -4.03, -4.03, -4.03, -4.0, -4.0, -4.0, -4.0, -4.0, -4.0, -4.0, -4.0, -4.0, -4.0, -4.0, -4.0, -4.0, -4.0, -4.0, -4.0, -4.0, -4.0, -4.0, -4.0, -4.0, -4.0, -4.0, -4.0, -4.0, -4.24, -4.69, -4.69, -4.45, -4.71, -4.71, -4.71, -4.69, -4.44, -5.09, -5.1, -5.71, -5.71, -5.71, -5.71, -5.1, -4.69, -3.56, -2.49, -1.67, -0.85, -0.89, -0.89, -0.85, -1.75, -1.6, -1.76, -1.69, -1.64, -0.79, 0.0, 1.59, 2.42, 2.32, 2.41, 2.39, 2.39, 2.31, 2.45, 2.45, 2.37, 2.37, 2.37]}]